Darstellungsparameter: Aktuell verwendete Einstellungen:
Skalierung der Graphiken ... ?
xyx+y,   Skalierungsfaktor:      Skalierung: Modus: x, Faktor: 1
Darstellungszeitraum ... ?
Vom - - bis: - -   Zeitraum: 26.05.2014 - 01.06.2014
Min/Max/Avg-Anzeige ... ?
Zeige MMA aktuell
Zeige MMA Monat
Zeige MMA alles
Zeige --A aktuell
Zeige --A Monat
Zeige --A alles
Keine MMA-Anzeige
MMA:
Keine MMA-Graphiken
MMA-Basis: 26.05.2014 - 01.06.2014
Quicknavigation für Darstellung... ?
Tage:      1T, 2T, 3T, 5T -1T -2T -3T -5T +1T +2T +3T +5T
Wochen: 1W, 2W, 3W -1W -2W -3W +1W +2W +3W
Monate: 1M, 3M, 6M -1M -3M -6M +1M +3M +6M
Jahre:    1J, 3J, 5J, 10J -1J -3J -5J -10J +1J +3J +5J +10J
Nutze für die Darstellung ... ?
Originaldaten oder Mittelwerte auf ...
Stundenbasis Tagesbasis Wochenbasis
Monatsbasis Jahresbasis      Datenbasis: Original-Daten
Darstellen als:
Statistik (Auto) Statistik J:M      Darstellung:
Zur Graphik,    zurück zur Übersicht aller Sensoren.
 
Tabellarische Datenbersicht: ?
 
Sensor: Nr:Datum:Temp:Abs-Feuchte:Windchill:Wind:
Aussen-T/F 1 26-05-2014 00:00:00 14.6 C 10.26 g/m*3 14.6 C 0 km/h
2 26-05-2014 00:05:00 14.6 C 10.14 g/m*3 14.6 C 0 km/h
3 26-05-2014 00:10:00 14.5 C 10.07 g/m*3 14.5 C 0 km/h
4 26-05-2014 00:15:00 14.4 C 10.14 g/m*3 14.4 C 0 km/h
5 26-05-2014 00:20:00 14.3 C 10.07 g/m*3 14.3 C 0 km/h
6 26-05-2014 00:25:00 14.3 C 10.2 g/m*3 14.3 C 0 km/h
7 26-05-2014 00:30:00 14.2 C 10.14 g/m*3 14.2 C 0 km/h
8 26-05-2014 00:35:00 14.1 C 10.07 g/m*3 14.1 C 0 km/h
9 26-05-2014 00:40:00 13.9 C 9.95 g/m*3 13.9 C 0 km/h
10 26-05-2014 00:45:00 13.9 C 9.95 g/m*3 13.9 C 0 km/h
11 26-05-2014 00:50:00 13.9 C 9.95 g/m*3 13.9 C 0 km/h
12 26-05-2014 00:55:00 13.9 C 9.95 g/m*3 13.9 C 0 km/h
13 26-05-2014 01:00:00 14 C 10.01 g/m*3 14 C 0 km/h
14 26-05-2014 01:05:00 14 C 10.01 g/m*3 14 C 0 km/h
15 26-05-2014 01:10:00 13.9 C 9.95 g/m*3 13.9 C 0 km/h
16 26-05-2014 01:15:00 13.9 C 9.95 g/m*3 13.9 C 0 km/h
17 26-05-2014 01:20:00 13.9 C 9.83 g/m*3 13.9 C 0 km/h
18 26-05-2014 01:25:00 13.9 C 9.95 g/m*3 13.9 C 0 km/h
19 26-05-2014 01:30:00 13.8 C 9.89 g/m*3 13.8 C 0 km/h
20 26-05-2014 01:35:00 13.8 C 9.89 g/m*3 13.8 C 0 km/h
21 26-05-2014 01:40:00 13.7 C 9.71 g/m*3 13.7 C 0 km/h
22 26-05-2014 01:45:00 13.7 C 9.83 g/m*3 13.7 C 0 km/h
23 26-05-2014 01:50:00 13.7 C 9.95 g/m*3 13.7 C 0 km/h
24 26-05-2014 01:55:00 13.6 C 9.89 g/m*3 13.6 C 0 km/h
25 26-05-2014 02:00:00 13.5 C 9.83 g/m*3 13.5 C 0 km/h
Sensor: Nr:Datum:Temp:Abs-Feuchte:Windchill:Wind:
Aussen-T/F 26 26-05-2014 02:05:00 13.4 C 9.88 g/m*3 13.4 C 0 km/h
27 26-05-2014 02:10:00 13.4 C 10 g/m*3 13.4 C 0 km/h
28 26-05-2014 02:15:00 13.4 C 10 g/m*3 13.4 C 0 km/h
29 26-05-2014 02:20:00 13.3 C 9.82 g/m*3 13.3 C 0 km/h
30 26-05-2014 02:25:00 13.3 C 9.82 g/m*3 13.3 C 0 km/h
31 26-05-2014 02:30:00 13.3 C 9.82 g/m*3 13.3 C 0 km/h
32 26-05-2014 02:35:00 13.2 C 9.76 g/m*3 13.2 C 0 km/h
33 26-05-2014 02:40:00 13.2 C 9.87 g/m*3 13.2 C 0 km/h
34 26-05-2014 02:45:00 13.2 C 9.87 g/m*3 13.2 C 0 km/h
35 26-05-2014 02:50:00 13.2 C 9.87 g/m*3 13.2 C 0 km/h
36 26-05-2014 02:55:00 13.1 C 9.81 g/m*3 13.1 C 0 km/h
37 26-05-2014 03:00:00 13.1 C 9.81 g/m*3 13.1 C 0 km/h
38 26-05-2014 03:05:00 13.1 C 9.93 g/m*3 13.1 C 0 km/h
39 26-05-2014 03:10:00 13.1 C 9.93 g/m*3 13.1 C 0 km/h
40 26-05-2014 03:15:00 13 C 9.75 g/m*3 13 C 0 km/h
41 26-05-2014 03:20:00 13 C 9.75 g/m*3 13 C 0 km/h
42 26-05-2014 03:25:00 13 C 9.75 g/m*3 13 C 0 km/h
43 26-05-2014 03:30:00 13 C 9.87 g/m*3 13 C 0 km/h
44 26-05-2014 03:35:00 12.9 C 9.81 g/m*3 12.9 C 0 km/h
45 26-05-2014 03:40:00 12.9 C 9.81 g/m*3 12.9 C 0 km/h
46 26-05-2014 03:45:00 12.9 C 9.92 g/m*3 12.9 C 0 km/h
47 26-05-2014 03:50:00 12.8 C 9.74 g/m*3 12.8 C 0 km/h
48 26-05-2014 03:55:00 12.8 C 9.74 g/m*3 12.8 C 0 km/h
49 26-05-2014 04:00:00 12.8 C 9.86 g/m*3 12.8 C 0 km/h
50 26-05-2014 04:05:00 12.8 C 9.86 g/m*3 12.8 C 0 km/h
Sensor: Nr:Datum:Temp:Abs-Feuchte:Windchill:Wind:
Aussen-T/F 51 26-05-2014 04:10:00 12.8 C 9.86 g/m*3 12.8 C 0 km/h
52 26-05-2014 04:15:00 12.8 C 9.86 g/m*3 12.8 C 0 km/h
53 26-05-2014 04:20:00 12.8 C 9.86 g/m*3 12.8 C 0 km/h
54 26-05-2014 04:25:00 12.8 C 9.86 g/m*3 12.8 C 0 km/h
55 26-05-2014 04:30:00 12.8 C 9.86 g/m*3 12.8 C 0 km/h
56 26-05-2014 04:35:00 12.7 C 9.8 g/m*3 12.7 C 0 km/h
57 26-05-2014 04:40:00 12.8 C 9.86 g/m*3 12.8 C 0 km/h
58 26-05-2014 04:45:00 12.7 C 9.8 g/m*3 12.7 C 0 km/h
59 26-05-2014 04:50:00 12.8 C 9.97 g/m*3 12.8 C 0 km/h
60 26-05-2014 04:55:00 12.8 C 9.97 g/m*3 12.8 C 0 km/h
61 26-05-2014 05:00:00 12.8 C 9.86 g/m*3 12.8 C 0 km/h
62 26-05-2014 05:05:00 12.8 C 9.86 g/m*3 12.8 C 0 km/h
63 26-05-2014 05:10:00 12.8 C 9.86 g/m*3 12.8 C 0 km/h
64 26-05-2014 05:15:00 12.9 C 9.92 g/m*3 12.9 C 0 km/h
65 26-05-2014 05:20:00 13 C 9.98 g/m*3 13 C 0 km/h
66 26-05-2014 05:25:00 13.1 C 10.04 g/m*3 13.1 C 0 km/h
67 26-05-2014 05:30:00 13.1 C 10.04 g/m*3 13.1 C 0 km/h
68 26-05-2014 05:35:00 13.2 C 10.1 g/m*3 13.2 C 0 km/h
69 26-05-2014 05:40:00 13.2 C 10.1 g/m*3 13.2 C 0 km/h
70 26-05-2014 05:45:00 13.2 C 10.1 g/m*3 13.2 C 0 km/h
71 26-05-2014 05:50:00 13.2 C 10.1 g/m*3 13.2 C 0 km/h
72 26-05-2014 05:55:00 13.2 C 10.1 g/m*3 13.2 C 0 km/h
73 26-05-2014 06:00:00 13.2 C 10.1 g/m*3 13.2 C 0 km/h
74 26-05-2014 06:05:00 13.2 C 10.1 g/m*3 13.2 C 0 km/h
75 26-05-2014 06:10:00 13.2 C 10.22 g/m*3 13.2 C 0 km/h
Sensor: Nr:Datum:Temp:Abs-Feuchte:Windchill:Wind:
Aussen-T/F 76 26-05-2014 06:15:00 13.2 C 10.22 g/m*3 13.2 C 0 km/h
77 26-05-2014 06:20:00 13.2 C 10.22 g/m*3 13.2 C 0 km/h
78 26-05-2014 06:25:00 13.2 C 10.22 g/m*3 13.2 C 0 km/h
79 26-05-2014 06:30:00 13.2 C 10.22 g/m*3 13.2 C 0 km/h
80 26-05-2014 06:35:00 13.2 C 10.22 g/m*3 13.2 C 0 km/h
81 26-05-2014 06:40:00 13.2 C 10.22 g/m*3 13.2 C 0 km/h
82 26-05-2014 06:45:00 13.3 C 10.28 g/m*3 13.3 C 0 km/h
83 26-05-2014 06:50:00 13.3 C 10.28 g/m*3 13.3 C 0 km/h
84 26-05-2014 06:55:00 13.3 C 10.4 g/m*3 13.3 C 0 km/h
85 26-05-2014 07:00:00 13.3 C 10.4 g/m*3 13.3 C 0 km/h
86 26-05-2014 07:05:00 13.3 C 10.4 g/m*3 13.3 C 0 km/h
87 26-05-2014 07:10:00 13.3 C 10.4 g/m*3 13.3 C 0 km/h
88 26-05-2014 07:15:00 13.4 C 10.46 g/m*3 13.4 C 1.6 km/h
89 26-05-2014 07:20:00 13.4 C 10.46 g/m*3 13.4 C 0 km/h
90 26-05-2014 07:25:00 13.4 C 10.46 g/m*3 13.4 C 3.2 km/h
91 26-05-2014 07:30:00 13.5 C 10.53 g/m*3 13.5 C 3.2 km/h
92 26-05-2014 07:35:00 13.6 C 10.59 g/m*3 13.6 C 0 km/h
93 26-05-2014 07:40:00 13.7 C 10.66 g/m*3 13.7 C 0 km/h
94 26-05-2014 07:45:00 13.8 C 10.72 g/m*3 13.8 C 0 km/h
95 26-05-2014 07:50:00 13.8 C 10.72 g/m*3 13.8 C 0 km/h
96 26-05-2014 07:55:00 13.9 C 10.91 g/m*3 13.9 C 0 km/h
97 26-05-2014 08:00:00 14.1 C 11.04 g/m*3 14.1 C 0 km/h
98 26-05-2014 08:05:00 14.2 C 10.99 g/m*3 14.2 C 0 km/h
99 26-05-2014 08:10:00 14.3 C 11.06 g/m*3 14.3 C 0 km/h
100 26-05-2014 08:15:00 14.3 C 11.06 g/m*3 14.3 C 0 km/h
Sensor: Nr:Datum:Temp:Abs-Feuchte:Windchill:Wind:
Aussen-T/F 101 26-05-2014 08:20:00 14.4 C 11 g/m*3 14.4 C 0 km/h
102 26-05-2014 08:25:00 14.5 C 11.07 g/m*3 14.5 C 0 km/h
103 26-05-2014 08:30:00 14.6 C 11.14 g/m*3 14.6 C 0 km/h
104 26-05-2014 08:35:00 14.8 C 11.15 g/m*3 14.8 C 1.6 km/h
105 26-05-2014 08:40:00 15 C 11.16 g/m*3 15 C 1.6 km/h
106 26-05-2014 08:45:00 15.2 C 11.16 g/m*3 15.2 C 0 km/h
107 26-05-2014 08:50:00 15.4 C 11.43 g/m*3 15.4 C 1.6 km/h
108 26-05-2014 08:55:00 15.4 C 11.04 g/m*3 15.4 C 1.6 km/h
109 26-05-2014 09:00:00 15.5 C 11.37 g/m*3 15.5 C 0 km/h
110 26-05-2014 09:05:00 15.6 C 11.3 g/m*3 15.6 C 0 km/h
111 26-05-2014 09:10:00 15.6 C 11.17 g/m*3 15.6 C 0 km/h
112 26-05-2014 09:15:00 15.7 C 11.37 g/m*3 15.7 C 0 km/h
113 26-05-2014 09:20:00 15.7 C 11.11 g/m*3 15.7 C 1.6 km/h
114 26-05-2014 09:25:00 15.7 C 10.97 g/m*3 15.7 C 0 km/h
115 26-05-2014 09:30:00 15.8 C 11.31 g/m*3 15.8 C 0 km/h
116 26-05-2014 09:35:00 15.7 C 11.37 g/m*3 15.7 C 0 km/h
117 26-05-2014 09:40:00 15.7 C 11.51 g/m*3 15.7 C 0 km/h
118 26-05-2014 09:45:00 15.6 C 11.3 g/m*3 15.6 C 0 km/h
119 26-05-2014 09:50:00 15.6 C 11.44 g/m*3 15.6 C 0 km/h
120 26-05-2014 09:55:00 15.6 C 11.3 g/m*3 15.6 C 0 km/h
121 26-05-2014 10:00:00 15.8 C 11.17 g/m*3 15.8 C 1.6 km/h
122 26-05-2014 10:05:00 15.9 C 11.51 g/m*3 15.9 C 0 km/h
123 26-05-2014 10:10:00 15.9 C 11.51 g/m*3 15.9 C 0 km/h
124 26-05-2014 10:15:00 15.9 C 11.1 g/m*3 15.9 C 3.2 km/h
125 26-05-2014 10:20:00 16 C 11.17 g/m*3 16 C 1.6 km/h
Sensor: Nr:Datum:Temp:Abs-Feuchte:Windchill:Wind:
Aussen-T/F 126 26-05-2014 10:25:00 16.2 C 11.17 g/m*3 16.2 C 6.4 km/h
127 26-05-2014 10:30:00 16.4 C 11.31 g/m*3 16.4 C 4.8 km/h
128 26-05-2014 10:35:00 16.7 C 11.37 g/m*3 16.7 C 6.4 km/h
129 26-05-2014 10:40:00 16.9 C 11.22 g/m*3 16.9 C 6.4 km/h
130 26-05-2014 10:45:00 17 C 11.14 g/m*3 17 C 1.6 km/h
131 26-05-2014 10:50:00 17.2 C 11.42 g/m*3 17.2 C 4.8 km/h
132 26-05-2014 10:55:00 17.4 C 11.41 g/m*3 17.4 C 6.4 km/h
133 26-05-2014 11:00:00 17.5 C 11.48 g/m*3 17.5 C 8.1 km/h
134 26-05-2014 11:05:00 17.6 C 11.4 g/m*3 17.6 C 3.2 km/h
135 26-05-2014 11:10:00 17.7 C 11.47 g/m*3 17.7 C 6.4 km/h
136 26-05-2014 11:15:00 17.8 C 11.54 g/m*3 17.8 C 6.4 km/h
137 26-05-2014 11:20:00 17.9 C 11.3 g/m*3 17.9 C 6.4 km/h
138 26-05-2014 11:25:00 17.8 C 11.23 g/m*3 17.8 C 6.4 km/h
139 26-05-2014 11:30:00 17.8 C 11.23 g/m*3 17.8 C 6.4 km/h
140 26-05-2014 11:35:00 17.9 C 11.3 g/m*3 17.9 C 8.1 km/h
141 26-05-2014 11:40:00 18 C 11.37 g/m*3 18 C 8.1 km/h
142 26-05-2014 11:45:00 18 C 11.21 g/m*3 18 C 8.1 km/h
143 26-05-2014 11:50:00 18.1 C 11.59 g/m*3 18.1 C 9.7 km/h
144 26-05-2014 11:55:00 18.2 C 11.5 g/m*3 18.2 C 9.7 km/h
145 26-05-2014 12:00:00 18.3 C 11.73 g/m*3 18.3 C 6.4 km/h
146 26-05-2014 12:05:00 18.3 C 11.57 g/m*3 18.3 C 9.7 km/h
147 26-05-2014 12:10:00 18.3 C 11.73 g/m*3 18.3 C 6.4 km/h
148 26-05-2014 12:15:00 18.2 C 11.66 g/m*3 18.2 C 6.4 km/h
149 26-05-2014 12:20:00 18 C 11.37 g/m*3 18 C 6.4 km/h
150 26-05-2014 12:25:00 17.8 C 11.54 g/m*3 17.8 C 6.4 km/h
Sensor: Nr:Datum:Temp:Abs-Feuchte:Windchill:Wind:
Aussen-T/F 151 26-05-2014 12:30:00 17.7 C 11.47 g/m*3 17.7 C 4.8 km/h
152 26-05-2014 12:35:00 17.8 C 11.84 g/m*3 17.8 C 8.1 km/h
153 26-05-2014 12:40:00 17.9 C 11.91 g/m*3 17.9 C 6.4 km/h
154 26-05-2014 12:45:00 18.2 C 11.66 g/m*3 18.2 C 9.7 km/h
155 26-05-2014 12:50:00 18.5 C 12.34 g/m*3 18.5 C 11.3 km/h
156 26-05-2014 12:55:00 18.9 C 12.31 g/m*3 18.9 C 11.3 km/h
157 26-05-2014 13:00:00 19.3 C 12.44 g/m*3 19.3 C 9.7 km/h
158 26-05-2014 13:05:00 19.3 C 12.11 g/m*3 19.3 C 12.9 km/h
159 26-05-2014 13:10:00 19.6 C 12.83 g/m*3 19.6 C 12.9 km/h
160 26-05-2014 13:15:00 19.9 C 12.2 g/m*3 19.9 C 11.3 km/h
161 26-05-2014 13:20:00 19.8 C 12.3 g/m*3 19.8 C 9.7 km/h
162 26-05-2014 13:25:00 19.7 C 12.06 g/m*3 19.7 C 9.7 km/h
163 26-05-2014 13:30:00 19.9 C 12.2 g/m*3 19.9 C 8.1 km/h
164 26-05-2014 13:35:00 19.9 C 12.37 g/m*3 19.9 C 8.1 km/h
165 26-05-2014 13:40:00 19.8 C 11.96 g/m*3 19.8 C 8.1 km/h
166 26-05-2014 13:45:00 19.6 C 11.99 g/m*3 19.6 C 6.4 km/h
167 26-05-2014 13:50:00 19.6 C 12.15 g/m*3 19.6 C 4.8 km/h
168 26-05-2014 13:55:00 19.6 C 12.15 g/m*3 19.6 C 4.8 km/h
169 26-05-2014 14:00:00 19.6 C 11.99 g/m*3 19.6 C 4.8 km/h
170 26-05-2014 14:05:00 19.7 C 12.23 g/m*3 19.7 C 8.1 km/h
171 26-05-2014 14:10:00 19.8 C 12.3 g/m*3 19.8 C 9.7 km/h
172 26-05-2014 14:15:00 20.1 C 12.34 g/m*3 20.1 C 9.7 km/h
173 26-05-2014 14:20:00 20.3 C 12.49 g/m*3 20.3 C 8.1 km/h
174 26-05-2014 14:25:00 20.6 C 12.35 g/m*3 20.6 C 9.7 km/h
175 26-05-2014 14:30:00 20.7 C 12.24 g/m*3 20.7 C 8.1 km/h
Sensor: Nr:Datum:Temp:Abs-Feuchte:Windchill:Wind:
Aussen-T/F 176 26-05-2014 14:35:00 20.9 C 12.02 g/m*3 20.9 C 11.3 km/h
177 26-05-2014 14:40:00 20.9 C 12.2 g/m*3 20.9 C 12.9 km/h
178 26-05-2014 14:45:00 20.9 C 11.84 g/m*3 20.9 C 11.3 km/h
179 26-05-2014 14:50:00 20.7 C 11.88 g/m*3 20.7 C 14.5 km/h
180 26-05-2014 14:55:00 20.8 C 12.31 g/m*3 20.8 C 9.7 km/h
181 26-05-2014 15:00:00 21 C 12.46 g/m*3 21 C 9.7 km/h
182 26-05-2014 15:05:00 21.2 C 12.42 g/m*3 21.2 C 8.1 km/h
183 26-05-2014 15:10:00 21.2 C 11.86 g/m*3 21.2 C 3.2 km/h
184 26-05-2014 15:15:00 21.2 C 12.05 g/m*3 21.2 C 6.4 km/h
185 26-05-2014 15:20:00 21.1 C 11.98 g/m*3 21.1 C 8.1 km/h
186 26-05-2014 15:25:00 21 C 11.91 g/m*3 21 C 4.8 km/h
187 26-05-2014 15:30:00 21 C 11.91 g/m*3 21 C 4.8 km/h
188 26-05-2014 15:35:00 21.1 C 12.16 g/m*3 21.1 C 3.2 km/h
189 26-05-2014 15:40:00 21.1 C 12.16 g/m*3 21.1 C 6.4 km/h
190 26-05-2014 15:45:00 21.2 C 11.86 g/m*3 21.2 C 4.8 km/h
191 26-05-2014 15:50:00 21.6 C 12.52 g/m*3 21.6 C 4.8 km/h
192 26-05-2014 15:55:00 21.6 C 12.14 g/m*3 21.6 C 9.7 km/h
193 26-05-2014 16:00:00 21.5 C 12.07 g/m*3 21.5 C 6.4 km/h
194 26-05-2014 16:05:00 21.6 C 12.33 g/m*3 21.6 C 8.1 km/h
195 26-05-2014 16:10:00 21.7 C 12.21 g/m*3 21.7 C 6.4 km/h
196 26-05-2014 16:15:00 21.7 C 12.4 g/m*3 21.7 C 8.1 km/h
197 26-05-2014 16:20:00 21.9 C 11.96 g/m*3 21.9 C 8.1 km/h
198 26-05-2014 16:25:00 22.1 C 12.49 g/m*3 22.1 C 9.7 km/h
199 26-05-2014 16:30:00 22.1 C 12.3 g/m*3 22.1 C 8.1 km/h
200 26-05-2014 16:35:00 22.1 C 12.49 g/m*3 22.1 C 4.8 km/h
Sensor: Nr:Datum:Temp:Abs-Feuchte:Windchill:Wind:
Aussen-T/F 201 26-05-2014 16:40:00 22.1 C 11.91 g/m*3 22.1 C 1.6 km/h
202 26-05-2014 16:45:00 22 C 12.23 g/m*3 22 C 3.2 km/h
203 26-05-2014 16:50:00 21.8 C 12.28 g/m*3 21.8 C 4.8 km/h
204 26-05-2014 16:55:00 21.8 C 12.47 g/m*3 21.8 C 8.1 km/h
205 26-05-2014 17:00:00 21.8 C 12.66 g/m*3 21.8 C 4.8 km/h
206 26-05-2014 17:05:00 21.9 C 12.54 g/m*3 21.9 C 6.4 km/h
207 26-05-2014 17:10:00 21.9 C 12.35 g/m*3 21.9 C 6.4 km/h
208 26-05-2014 17:15:00 21.9 C 12.16 g/m*3 21.9 C 4.8 km/h
209 26-05-2014 17:20:00 21.8 C 12.47 g/m*3 21.8 C 6.4 km/h
210 26-05-2014 17:25:00 21.6 C 11.95 g/m*3 21.6 C 3.2 km/h
211 26-05-2014 17:30:00 21.5 C 12.63 g/m*3 21.5 C 3.2 km/h
212 26-05-2014 17:35:00 21.4 C 13.31 g/m*3 21.4 C 1.6 km/h
213 26-05-2014 17:40:00 21.3 C 12.12 g/m*3 21.3 C 4.8 km/h
214 26-05-2014 17:45:00 21.3 C 12.3 g/m*3 21.3 C 3.2 km/h
215 26-05-2014 17:50:00 21.4 C 12.19 g/m*3 21.4 C 3.2 km/h
216 26-05-2014 17:55:00 21.5 C 12.82 g/m*3 21.5 C 1.6 km/h
217 26-05-2014 18:00:00 21.4 C 13.12 g/m*3 21.4 C 3.2 km/h
218 26-05-2014 18:05:00 21.3 C 13.05 g/m*3 21.3 C 0 km/h
219 26-05-2014 18:10:00 21.2 C 13.53 g/m*3 21.2 C 0 km/h
220 26-05-2014 18:15:00 20.9 C 13.48 g/m*3 20.9 C 0 km/h
221 26-05-2014 18:20:00 20.6 C 13.6 g/m*3 20.6 C 0 km/h
222 26-05-2014 18:25:00 20.5 C 13.52 g/m*3 20.5 C 0 km/h
223 26-05-2014 18:30:00 20.4 C 12.56 g/m*3 20.4 C 6.4 km/h
224 26-05-2014 18:35:00 20.4 C 12.38 g/m*3 20.4 C 4.8 km/h
225 26-05-2014 18:40:00 20.6 C 12.71 g/m*3 20.6 C 4.8 km/h
Sensor: Nr:Datum:Temp:Abs-Feuchte:Windchill:Wind:
Aussen-T/F 226 26-05-2014 18:45:00 20.6 C 12.89 g/m*3 20.6 C 3.2 km/h
227 26-05-2014 18:50:00 20.6 C 12.71 g/m*3 20.6 C 4.8 km/h
228 26-05-2014 18:55:00 20.6 C 12.89 g/m*3 20.6 C 0 km/h
229 26-05-2014 19:00:00 20.4 C 12.91 g/m*3 20.4 C 0 km/h
230 26-05-2014 19:05:00 20.3 C 13.01 g/m*3 20.3 C 0 km/h
231 26-05-2014 19:10:00 20.2 C 12.94 g/m*3 20.2 C 0 km/h
232 26-05-2014 19:15:00 20.1 C 13.21 g/m*3 20.1 C 0 km/h
233 26-05-2014 19:20:00 19.9 C 13.4 g/m*3 19.9 C 0 km/h
234 26-05-2014 19:25:00 19.8 C 13.32 g/m*3 19.8 C 0 km/h
235 26-05-2014 19:30:00 19.6 C 13.17 g/m*3 19.6 C 0 km/h
236 26-05-2014 19:35:00 19.6 C 13.51 g/m*3 19.6 C 0 km/h
237 26-05-2014 19:40:00 19.5 C 12.92 g/m*3 19.5 C 0 km/h
238 26-05-2014 19:45:00 19.4 C 13.35 g/m*3 19.4 C 0 km/h
239 26-05-2014 19:50:00 19.4 C 12.85 g/m*3 19.4 C 0 km/h
240 26-05-2014 19:55:00 19.4 C 13.01 g/m*3 19.4 C 0 km/h
241 26-05-2014 20:00:00 19.4 C 13.35 g/m*3 19.4 C 1.6 km/h
242 26-05-2014 20:05:00 19.3 C 13.27 g/m*3 19.3 C 0 km/h
243 26-05-2014 20:10:00 19.2 C 13.19 g/m*3 19.2 C 0 km/h
244 26-05-2014 20:15:00 19.1 C 12.79 g/m*3 19.1 C 0 km/h
245 26-05-2014 20:20:00 18.9 C 12.8 g/m*3 18.9 C 0 km/h
246 26-05-2014 20:25:00 18.7 C 12.65 g/m*3 18.7 C 0 km/h
247 26-05-2014 20:30:00 18.6 C 12.89 g/m*3 18.6 C 1.6 km/h
248 26-05-2014 20:35:00 18.3 C 12.98 g/m*3 18.3 C 0 km/h
249 26-05-2014 20:40:00 18.1 C 12.82 g/m*3 18.1 C 1.6 km/h
250 26-05-2014 20:45:00 17.9 C 12.67 g/m*3 17.9 C 0 km/h
Sensor: Nr:Datum:Temp:Abs-Feuchte:Windchill:Wind:
Aussen-T/F 251 26-05-2014 20:50:00 17.7 C 12.52 g/m*3 17.7 C 0 km/h
252 26-05-2014 20:55:00 17.7 C 12.52 g/m*3 17.7 C 0 km/h
253 26-05-2014 21:00:00 17.7 C 12.52 g/m*3 17.7 C 3.2 km/h
254 26-05-2014 21:05:00 17.6 C 12.45 g/m*3 17.6 C 0 km/h
255 26-05-2014 21:10:00 17.5 C 12.52 g/m*3 17.5 C 0 km/h
256 26-05-2014 21:15:00 17.4 C 12.45 g/m*3 17.4 C 0 km/h
257 26-05-2014 21:20:00 17.3 C 12.52 g/m*3 17.3 C 0 km/h
258 26-05-2014 21:25:00 17.3 C 12.67 g/m*3 17.3 C 0 km/h
259 26-05-2014 21:30:00 17.3 C 12.67 g/m*3 17.3 C 0 km/h
260 26-05-2014 21:35:00 17.3 C 12.67 g/m*3 17.3 C 0 km/h
261 26-05-2014 21:40:00 17.3 C 12.67 g/m*3 17.3 C 0 km/h
262 26-05-2014 21:45:00 17.3 C 12.67 g/m*3 17.3 C 0 km/h
263 26-05-2014 21:50:00 17.3 C 12.67 g/m*3 17.3 C 0 km/h
264 26-05-2014 21:55:00 17.3 C 12.52 g/m*3 17.3 C 0 km/h
265 26-05-2014 22:00:00 17.3 C 12.52 g/m*3 17.3 C 0 km/h
266 26-05-2014 22:05:00 17.4 C 12.45 g/m*3 17.4 C 0 km/h
267 26-05-2014 22:10:00 17.4 C 12.45 g/m*3 17.4 C 1.6 km/h
268 26-05-2014 22:15:00 17.5 C 12.52 g/m*3 17.5 C 1.6 km/h
269 26-05-2014 22:20:00 17.6 C 12.6 g/m*3 17.6 C 0 km/h
270 26-05-2014 22:25:00 17.6 C 12.9 g/m*3 17.6 C 0 km/h
271 26-05-2014 22:30:00 17.4 C 12.89 g/m*3 17.4 C 0 km/h
272 26-05-2014 22:35:00 17.3 C 12.96 g/m*3 17.3 C 1.6 km/h
273 26-05-2014 22:40:00 17.2 C 13.03 g/m*3 17.2 C 0 km/h
274 26-05-2014 22:45:00 17.1 C 12.96 g/m*3 17.1 C 0 km/h
275 26-05-2014 22:50:00 16.9 C 12.94 g/m*3 16.9 C 1.6 km/h
Sensor: Nr:Datum:Temp:Abs-Feuchte:Windchill:Wind:
Aussen-T/F 276 26-05-2014 22:55:00 16.8 C 12.87 g/m*3 16.8 C 0 km/h
277 26-05-2014 23:00:00 16.8 C 13.01 g/m*3 16.8 C 1.6 km/h
278 26-05-2014 23:05:00 16.7 C 12.93 g/m*3 16.7 C 0 km/h
279 26-05-2014 23:10:00 16.7 C 13.07 g/m*3 16.7 C 4.8 km/h
280 26-05-2014 23:15:00 16.6 C 13 g/m*3 16.6 C 3.2 km/h
281 26-05-2014 23:20:00 16.6 C 13 g/m*3 16.6 C 0 km/h
282 26-05-2014 23:25:00 16.5 C 13.06 g/m*3 16.5 C 3.2 km/h
283 26-05-2014 23:30:00 16.4 C 12.98 g/m*3 16.4 C 0 km/h
284 26-05-2014 23:35:00 16.3 C 12.9 g/m*3 16.3 C 0 km/h
285 26-05-2014 23:40:00 16.3 C 13.04 g/m*3 16.3 C 1.6 km/h
286 26-05-2014 23:45:00 16.3 C 13.04 g/m*3 16.3 C 0 km/h
287 26-05-2014 23:50:00 16.2 C 12.96 g/m*3 16.2 C 1.6 km/h
288 26-05-2014 23:55:00 16.2 C 12.96 g/m*3 16.2 C 0 km/h
289 27-05-2014 00:00:00 16.2 C 12.96 g/m*3 16.2 C 0 km/h
290 27-05-2014 00:40:00 15.8 C 12.79 g/m*3 15.8 C 0 km/h
291 27-05-2014 00:45:00 15.8 C 12.79 g/m*3 15.8 C 0 km/h
292 27-05-2014 00:50:00 15.7 C 12.71 g/m*3 15.7 C 0 km/h
293 27-05-2014 00:55:00 15.7 C 12.71 g/m*3 15.7 C 0 km/h
294 27-05-2014 01:00:00 15.7 C 12.71 g/m*3 15.7 C 0 km/h
295 27-05-2014 01:05:00 15.7 C 12.84 g/m*3 15.7 C 0 km/h
296 27-05-2014 01:10:00 15.6 C 12.77 g/m*3 15.6 C 0 km/h
297 27-05-2014 01:15:00 15.6 C 12.77 g/m*3 15.6 C 0 km/h
298 27-05-2014 01:20:00 15.4 C 12.61 g/m*3 15.4 C 0 km/h
299 27-05-2014 01:25:00 15.3 C 12.41 g/m*3 15.3 C 0 km/h
300 27-05-2014 01:30:00 15.2 C 12.33 g/m*3 15.2 C 0 km/h
Sensor: Nr:Datum:Temp:Abs-Feuchte:Windchill:Wind:
Aussen-T/F 301 27-05-2014 01:35:00 15.2 C 12.46 g/m*3 15.2 C 0 km/h
302 27-05-2014 01:40:00 15.1 C 12.39 g/m*3 15.1 C 0 km/h
303 27-05-2014 01:45:00 15.1 C 12.39 g/m*3 15.1 C 0 km/h
304 27-05-2014 01:50:00 15 C 12.31 g/m*3 15 C 0 km/h
305 27-05-2014 01:55:00 14.9 C 12.24 g/m*3 14.9 C 0 km/h
306 27-05-2014 02:00:00 14.9 C 12.24 g/m*3 14.9 C 0 km/h
307 27-05-2014 02:05:00 14.9 C 12.24 g/m*3 14.9 C 0 km/h
308 27-05-2014 02:10:00 14.8 C 12.16 g/m*3 14.8 C 0 km/h
309 27-05-2014 02:15:00 14.8 C 12.16 g/m*3 14.8 C 0 km/h
310 27-05-2014 02:20:00 14.8 C 12.16 g/m*3 14.8 C 0 km/h
311 27-05-2014 02:25:00 14.8 C 12.16 g/m*3 14.8 C 0 km/h
312 27-05-2014 02:30:00 14.8 C 12.16 g/m*3 14.8 C 0 km/h
313 27-05-2014 02:35:00 14.8 C 12.29 g/m*3 14.8 C 0 km/h
314 27-05-2014 02:40:00 14.8 C 12.29 g/m*3 14.8 C 0 km/h
315 27-05-2014 02:45:00 14.8 C 12.29 g/m*3 14.8 C 0 km/h
316 27-05-2014 02:50:00 14.8 C 12.29 g/m*3 14.8 C 0 km/h
317 27-05-2014 02:55:00 14.8 C 12.29 g/m*3 14.8 C 0 km/h
318 27-05-2014 03:00:00 14.8 C 12.29 g/m*3 14.8 C 0 km/h
319 27-05-2014 03:05:00 14.8 C 12.16 g/m*3 14.8 C 0 km/h
320 27-05-2014 03:10:00 14.8 C 12.16 g/m*3 14.8 C 0 km/h
321 27-05-2014 03:15:00 14.8 C 12.29 g/m*3 14.8 C 0 km/h
322 27-05-2014 03:20:00 14.8 C 12.29 g/m*3 14.8 C 0 km/h
323 27-05-2014 03:25:00 14.7 C 12.21 g/m*3 14.7 C 0 km/h
324 27-05-2014 03:30:00 14.7 C 12.21 g/m*3 14.7 C 0 km/h
325 27-05-2014 03:35:00 14.7 C 12.21 g/m*3 14.7 C 0 km/h
Sensor: Nr:Datum:Temp:Abs-Feuchte:Windchill:Wind:
Aussen-T/F 326 27-05-2014 03:40:00 14.7 C 12.21 g/m*3 14.7 C 0 km/h
327 27-05-2014 03:45:00 14.7 C 12.21 g/m*3 14.7 C 0 km/h
328 27-05-2014 03:50:00 14.7 C 12.21 g/m*3 14.7 C 0 km/h
329 27-05-2014 03:55:00 14.7 C 12.21 g/m*3 14.7 C 0 km/h
330 27-05-2014 04:00:00 14.7 C 12.21 g/m*3 14.7 C 0 km/h
331 27-05-2014 04:05:00 14.7 C 12.21 g/m*3 14.7 C 0 km/h
332 27-05-2014 04:10:00 14.7 C 12.21 g/m*3 14.7 C 0 km/h
333 27-05-2014 04:15:00 14.7 C 12.21 g/m*3 14.7 C 0 km/h
334 27-05-2014 04:20:00 14.7 C 12.21 g/m*3 14.7 C 0 km/h
335 27-05-2014 04:25:00 14.7 C 12.21 g/m*3 14.7 C 0 km/h
336 27-05-2014 04:30:00 14.7 C 12.21 g/m*3 14.7 C 0 km/h
337 27-05-2014 04:35:00 14.7 C 12.21 g/m*3 14.7 C 0 km/h
338 27-05-2014 04:40:00 14.7 C 12.21 g/m*3 14.7 C 0 km/h
339 27-05-2014 04:45:00 14.7 C 12.21 g/m*3 14.7 C 0 km/h
340 27-05-2014 04:50:00 14.6 C 12.14 g/m*3 14.6 C 0 km/h
341 27-05-2014 04:55:00 14.6 C 12.14 g/m*3 14.6 C 0 km/h
342 27-05-2014 05:00:00 14.6 C 12.14 g/m*3 14.6 C 0 km/h
343 27-05-2014 05:05:00 14.6 C 12.14 g/m*3 14.6 C 0 km/h
344 27-05-2014 05:10:00 14.5 C 12.06 g/m*3 14.5 C 0 km/h
345 27-05-2014 05:15:00 14.5 C 12.06 g/m*3 14.5 C 0 km/h
346 27-05-2014 05:20:00 14.5 C 12.06 g/m*3 14.5 C 0 km/h
347 27-05-2014 05:25:00 14.5 C 12.06 g/m*3 14.5 C 0 km/h
348 27-05-2014 05:30:00 14.4 C 11.99 g/m*3 14.4 C 0 km/h
349 27-05-2014 05:35:00 14.4 C 11.99 g/m*3 14.4 C 0 km/h
350 27-05-2014 05:40:00 14.3 C 11.92 g/m*3 14.3 C 0 km/h
Sensor: Nr:Datum:Temp:Abs-Feuchte:Windchill:Wind:
Aussen-T/F 351 27-05-2014 05:45:00 14.3 C 11.92 g/m*3 14.3 C 0 km/h
352 27-05-2014 05:50:00 14.3 C 11.92 g/m*3 14.3 C 0 km/h
353 27-05-2014 05:55:00 14.3 C 11.92 g/m*3 14.3 C 0 km/h
354 27-05-2014 06:00:00 14.3 C 11.92 g/m*3 14.3 C 0 km/h
355 27-05-2014 06:05:00 14.3 C 11.92 g/m*3 14.3 C 0 km/h
356 27-05-2014 06:10:00 14.4 C 11.99 g/m*3 14.4 C 0 km/h
357 27-05-2014 06:15:00 14.4 C 11.99 g/m*3 14.4 C 0 km/h
358 27-05-2014 06:20:00 14.4 C 11.99 g/m*3 14.4 C 0 km/h
359 27-05-2014 06:25:00 14.4 C 11.99 g/m*3 14.4 C 0 km/h
360 27-05-2014 06:30:00 14.4 C 11.99 g/m*3 14.4 C 0 km/h
361 27-05-2014 06:35:00 14.5 C 12.06 g/m*3 14.5 C 0 km/h
362 27-05-2014 06:40:00 14.6 C 12.14 g/m*3 14.6 C 0 km/h
363 27-05-2014 06:45:00 14.6 C 12.14 g/m*3 14.6 C 0 km/h
364 27-05-2014 06:50:00 14.6 C 12.14 g/m*3 14.6 C 0 km/h
365 27-05-2014 06:55:00 14.7 C 12.34 g/m*3 14.7 C 0 km/h
366 27-05-2014 07:00:00 14.7 C 12.34 g/m*3 14.7 C 0 km/h
367 27-05-2014 07:05:00 14.7 C 12.34 g/m*3 14.7 C 0 km/h
368 27-05-2014 07:10:00 14.7 C 12.34 g/m*3 14.7 C 1.6 km/h
369 27-05-2014 07:15:00 14.8 C 12.41 g/m*3 14.8 C 1.6 km/h
370 27-05-2014 07:20:00 14.8 C 12.41 g/m*3 14.8 C 0 km/h
371 27-05-2014 07:25:00 14.9 C 12.49 g/m*3 14.9 C 3.2 km/h
372 27-05-2014 07:30:00 14.9 C 12.49 g/m*3 14.9 C 0 km/h
373 27-05-2014 07:35:00 14.9 C 12.49 g/m*3 14.9 C 1.6 km/h
374 27-05-2014 07:40:00 15 C 12.57 g/m*3 15 C 3.2 km/h
375 27-05-2014 07:45:00 15 C 12.57 g/m*3 15 C 1.6 km/h
Sensor: Nr:Datum:Temp:Abs-Feuchte:Windchill:Wind:
Aussen-T/F 376 27-05-2014 07:50:00 15 C 12.57 g/m*3 15 C 3.2 km/h
377 27-05-2014 07:55:00 15.1 C 12.64 g/m*3 15.1 C 3.2 km/h
378 27-05-2014 08:00:00 15 C 12.57 g/m*3 15 C 1.6 km/h
379 27-05-2014 08:05:00 14.9 C 12.49 g/m*3 14.9 C 1.6 km/h
380 27-05-2014 08:10:00 14.9 C 12.36 g/m*3 14.9 C 0 km/h
381 27-05-2014 08:15:00 14.9 C 12.36 g/m*3 14.9 C 1.6 km/h
382 27-05-2014 08:20:00 15 C 12.44 g/m*3 15 C 1.6 km/h
383 27-05-2014 08:25:00 14.9 C 12.36 g/m*3 14.9 C 8.1 km/h
384 27-05-2014 08:30:00 14.9 C 12.36 g/m*3 14.9 C 1.6 km/h
385 27-05-2014 08:35:00 15 C 12.44 g/m*3 15 C 0 km/h
386 27-05-2014 08:40:00 15.1 C 12.51 g/m*3 15.1 C 1.6 km/h
387 27-05-2014 08:45:00 15 C 12.44 g/m*3 15 C 1.6 km/h
388 27-05-2014 08:50:00 15 C 12.44 g/m*3 15 C 0 km/h
389 27-05-2014 08:55:00 14.9 C 12.36 g/m*3 14.9 C 8.1 km/h
390 27-05-2014 09:00:00 14.9 C 12.36 g/m*3 14.9 C 0 km/h
391 27-05-2014 09:05:00 14.8 C 12.29 g/m*3 14.8 C 1.6 km/h
392 27-05-2014 09:10:00 14.8 C 12.29 g/m*3 14.8 C 4.8 km/h
393 27-05-2014 09:15:00 14.8 C 12.29 g/m*3 14.8 C 6.4 km/h
394 27-05-2014 09:20:00 14.7 C 12.09 g/m*3 14.7 C 6.4 km/h
395 27-05-2014 09:25:00 14.7 C 12.09 g/m*3 14.7 C 3.2 km/h
396 27-05-2014 09:30:00 14.7 C 12.09 g/m*3 14.7 C 8.1 km/h
397 27-05-2014 09:35:00 14.7 C 12.09 g/m*3 14.7 C 8.1 km/h
398 27-05-2014 09:40:00 14.7 C 12.09 g/m*3 14.7 C 9.7 km/h
399 27-05-2014 09:45:00 14.7 C 12.09 g/m*3 14.7 C 8.1 km/h
400 27-05-2014 09:50:00 14.8 C 12.16 g/m*3 14.8 C 3.2 km/h
Sensor: Nr:Datum:Temp:Abs-Feuchte:Windchill:Wind:
Aussen-T/F 401 27-05-2014 09:55:00 14.8 C 12.16 g/m*3 14.8 C 3.2 km/h
402 27-05-2014 10:00:00 14.9 C 12.24 g/m*3 14.9 C 0 km/h
403 27-05-2014 10:05:00 14.8 C 12.03 g/m*3 14.8 C 3.2 km/h
404 27-05-2014 10:10:00 14.8 C 12.03 g/m*3 14.8 C 1.6 km/h
405 27-05-2014 10:15:00 14.8 C 12.03 g/m*3 14.8 C 9.7 km/h
406 27-05-2014 10:20:00 14.8 C 12.03 g/m*3 14.8 C 6.4 km/h
407 27-05-2014 10:25:00 14.8 C 12.03 g/m*3 14.8 C 1.6 km/h
408 27-05-2014 10:30:00 14.8 C 12.03 g/m*3 14.8 C 6.4 km/h
409 27-05-2014 10:35:00 14.9 C 12.11 g/m*3 14.9 C 4.8 km/h
410 27-05-2014 10:40:00 14.9 C 12.11 g/m*3 14.9 C 6.4 km/h
411 27-05-2014 10:45:00 15 C 12.18 g/m*3 15 C 4.8 km/h
412 27-05-2014 10:50:00 15.1 C 12.26 g/m*3 15.1 C 4.8 km/h
413 27-05-2014 10:55:00 15.2 C 12.33 g/m*3 15.2 C 4.8 km/h
414 27-05-2014 11:00:00 15.3 C 12.41 g/m*3 15.3 C 4.8 km/h
415 27-05-2014 11:05:00 15.4 C 12.48 g/m*3 15.4 C 1.6 km/h
416 27-05-2014 11:10:00 15.4 C 12.48 g/m*3 15.4 C 1.6 km/h
417 27-05-2014 11:15:00 15.4 C 12.35 g/m*3 15.4 C 3.2 km/h
418 27-05-2014 11:20:00 15.4 C 12.35 g/m*3 15.4 C 1.6 km/h
419 27-05-2014 11:25:00 15.4 C 12.22 g/m*3 15.4 C 3.2 km/h
420 27-05-2014 11:30:00 15.4 C 12.22 g/m*3 15.4 C 1.6 km/h
421 27-05-2014 11:35:00 15.4 C 12.35 g/m*3 15.4 C 0 km/h
422 27-05-2014 11:40:00 15.4 C 12.35 g/m*3 15.4 C 8.1 km/h
423 27-05-2014 11:45:00 15.4 C 12.35 g/m*3 15.4 C 1.6 km/h
424 27-05-2014 11:50:00 15.3 C 12.28 g/m*3 15.3 C 3.2 km/h
425 27-05-2014 11:55:00 15.2 C 12.2 g/m*3 15.2 C 3.2 km/h
Sensor: Nr:Datum:Temp:Abs-Feuchte:Windchill:Wind:
Aussen-T/F 426 27-05-2014 12:00:00 15.2 C 12.2 g/m*3 15.2 C 9.7 km/h
427 27-05-2014 12:05:00 15.2 C 12.07 g/m*3 15.2 C 6.4 km/h
428 27-05-2014 12:10:00 15.2 C 12.2 g/m*3 15.2 C 3.2 km/h
429 27-05-2014 12:15:00 15.2 C 12.2 g/m*3 15.2 C 3.2 km/h
430 27-05-2014 12:20:00 15.3 C 12.14 g/m*3 15.3 C 6.4 km/h
431 27-05-2014 12:25:00 15.4 C 12.22 g/m*3 15.4 C 4.8 km/h
432 27-05-2014 12:30:00 15.6 C 12.23 g/m*3 15.6 C 6.4 km/h
433 27-05-2014 12:35:00 15.7 C 12.18 g/m*3 15.7 C 12.9 km/h
434 27-05-2014 12:40:00 15.8 C 12.25 g/m*3 15.8 C 4.8 km/h
435 27-05-2014 12:45:00 15.9 C 12.32 g/m*3 15.9 C 14.5 km/h
436 27-05-2014 12:50:00 16.1 C 12.47 g/m*3 16.1 C 4.8 km/h
437 27-05-2014 12:55:00 16.3 C 12.49 g/m*3 16.3 C 3.2 km/h
438 27-05-2014 13:00:00 16.6 C 12.71 g/m*3 16.6 C 3.2 km/h
439 27-05-2014 13:05:00 16.9 C 13.09 g/m*3 16.9 C 9.7 km/h
440 27-05-2014 13:10:00 17.2 C 13.18 g/m*3 17.2 C 6.4 km/h
441 27-05-2014 13:15:00 17.3 C 12.82 g/m*3 17.3 C 6.4 km/h
442 27-05-2014 13:20:00 17.5 C 12.97 g/m*3 17.5 C 14.5 km/h
443 27-05-2014 13:25:00 17.6 C 12.6 g/m*3 17.6 C 11.3 km/h
444 27-05-2014 13:30:00 17.6 C 12.75 g/m*3 17.6 C 4.8 km/h
445 27-05-2014 13:35:00 17.6 C 12.75 g/m*3 17.6 C 8.1 km/h
446 27-05-2014 13:40:00 17.6 C 12.75 g/m*3 17.6 C 4.8 km/h
447 27-05-2014 13:45:00 17.6 C 12.75 g/m*3 17.6 C 1.6 km/h
448 27-05-2014 14:10:00 18.4 C 15.73 g/m*3 18.4 C 9.7 km/h
449 27-05-2014 14:15:00 18.4 C 15.73 g/m*3 18.4 C 9.7 km/h
450 27-05-2014 15:30:00 16.5 C 11.8 g/m*3 16.5 C 6.4 km/h
Sensor: Nr:Datum:Temp:Abs-Feuchte:Windchill:Wind:
Aussen-T/F 451 27-05-2014 15:35:00 16.5 C 11.8 g/m*3 16.5 C 3.2 km/h
452 27-05-2014 15:40:00 16.3 C 11.65 g/m*3 16.3 C 12.9 km/h
453 27-05-2014 15:45:00 16.3 C 11.65 g/m*3 16.3 C 3.2 km/h
454 27-05-2014 15:50:00 16.3 C 11.65 g/m*3 16.3 C 1.6 km/h
455 27-05-2014 15:55:00 16.3 C 11.65 g/m*3 16.3 C 3.2 km/h
456 27-05-2014 16:00:00 16.2 C 11.58 g/m*3 16.2 C 6.4 km/h
457 27-05-2014 16:05:00 16.2 C 11.58 g/m*3 16.2 C 3.2 km/h
458 27-05-2014 16:10:00 16.2 C 11.58 g/m*3 16.2 C 1.6 km/h
459 27-05-2014 16:15:00 16.2 C 11.86 g/m*3 16.2 C 1.6 km/h
460 27-05-2014 16:20:00 16.2 C 11.86 g/m*3 16.2 C 1.6 km/h
461 27-05-2014 17:00:00 15.4 C 12.22 g/m*3 15.4 C 3.2 km/h
462 27-05-2014 17:05:00 15.3 C 12.28 g/m*3 15.3 C 1.6 km/h
463 27-05-2014 17:10:00 15.3 C 12.28 g/m*3 15.3 C 1.6 km/h
464 27-05-2014 17:15:00 15.3 C 12.28 g/m*3 15.3 C 1.6 km/h
465 27-05-2014 17:35:00 15.3 C 12.41 g/m*3 15.3 C 3.2 km/h
466 27-05-2014 17:40:00 15.3 C 12.28 g/m*3 15.3 C 1.6 km/h
467 27-05-2014 17:45:00 15.3 C 12.28 g/m*3 15.3 C 3.2 km/h
468 27-05-2014 18:10:00 16.4 C 13.96 g/m*3 16.4 C 11.3 km/h
469 27-05-2014 18:15:00 16.4 C 13.96 g/m*3 16.4 C 4.8 km/h
470 27-05-2014 18:20:00 16.4 C 13.96 g/m*3 16.4 C 8.1 km/h
471 27-05-2014 18:25:00 16.4 C 13.96 g/m*3 16.4 C 4.8 km/h
472 27-05-2014 19:35:00 15.3 C 13.06 g/m*3 15.3 C 0 km/h
473 27-05-2014 19:40:00 15.4 C 12.61 g/m*3 15.4 C 0 km/h
474 27-05-2014 19:45:00 15.4 C 12.61 g/m*3 15.4 C 0 km/h
475 27-05-2014 19:50:00 15.4 C 12.61 g/m*3 15.4 C 0 km/h
Sensor: Nr:Datum:Temp:Abs-Feuchte:Windchill:Wind:
Aussen-T/F 476 27-05-2014 19:55:00 15.4 C 12.61 g/m*3 15.4 C 0 km/h
477 27-05-2014 20:00:00 15.4 C 12.61 g/m*3 15.4 C 0 km/h
478 27-05-2014 20:05:00 15.4 C 12.61 g/m*3 15.4 C 0 km/h
479 27-05-2014 20:10:00 15.3 C 12.54 g/m*3 15.3 C 0 km/h
480 27-05-2014 20:15:00 15.3 C 12.54 g/m*3 15.3 C 0 km/h
481 27-05-2014 20:20:00 15.3 C 12.54 g/m*3 15.3 C 0 km/h
482 27-05-2014 20:25:00 15.2 C 12.46 g/m*3 15.2 C 1.6 km/h
483 27-05-2014 20:30:00 15.1 C 12.39 g/m*3 15.1 C 0 km/h
484 27-05-2014 20:35:00 14.9 C 12.11 g/m*3 14.9 C 4.8 km/h
485 27-05-2014 20:40:00 14.8 C 11.78 g/m*3 14.8 C 6.4 km/h
486 27-05-2014 20:45:00 14.8 C 11.65 g/m*3 14.8 C 3.2 km/h
487 27-05-2014 20:50:00 14.8 C 11.53 g/m*3 14.8 C 3.2 km/h
488 27-05-2014 20:55:00 14.8 C 11.65 g/m*3 14.8 C 3.2 km/h
489 27-05-2014 21:00:00 14.8 C 11.65 g/m*3 14.8 C 1.6 km/h
490 27-05-2014 21:05:00 14.6 C 11.51 g/m*3 14.6 C 1.6 km/h
491 27-05-2014 21:10:00 14.6 C 11.51 g/m*3 14.6 C 3.2 km/h
492 27-05-2014 21:15:00 14.5 C 11.32 g/m*3 14.5 C 3.2 km/h
493 27-05-2014 21:20:00 14.5 C 11.32 g/m*3 14.5 C 4.8 km/h
494 27-05-2014 21:25:00 14.6 C 11.26 g/m*3 14.6 C 1.6 km/h
495 27-05-2014 21:30:00 14.6 C 11.51 g/m*3 14.6 C 1.6 km/h
496 27-05-2014 21:35:00 14.4 C 11.37 g/m*3 14.4 C 1.6 km/h
497 27-05-2014 21:40:00 14.4 C 11.25 g/m*3 14.4 C 6.4 km/h
498 27-05-2014 21:45:00 14.4 C 11.25 g/m*3 14.4 C 8.1 km/h
499 27-05-2014 21:50:00 14.4 C 11.25 g/m*3 14.4 C 6.4 km/h
500 28-05-2014 10:35:00 15.6 C 13.3 g/m*3 15.6 C 9.7 km/h
Sensor: Nr:Datum:Temp:Abs-Feuchte:Windchill:Wind:
Aussen-T/F 501 28-05-2014 10:40:00 15.6 C 13.3 g/m*3 15.6 C 8.1 km/h
502 28-05-2014 10:45:00 15.6 C 13.3 g/m*3 15.6 C 6.4 km/h
503 28-05-2014 10:50:00 15.6 C 13.3 g/m*3 15.6 C 3.2 km/h
504 28-05-2014 10:55:00 15.6 C 13.3 g/m*3 15.6 C 6.4 km/h
505 28-05-2014 11:00:00 15.6 C 13.3 g/m*3 15.6 C 9.7 km/h
506 28-05-2014 11:05:00 15.6 C 13.3 g/m*3 15.6 C 6.4 km/h
507 28-05-2014 17:30:00 16.7 C 10.37 g/m*3 16.7 C 3.2 km/h
508 28-05-2014 17:35:00 16.4 C 11.58 g/m*3 16.4 C 0 km/h
509 28-05-2014 17:40:00 16.3 C 11.65 g/m*3 16.3 C 0 km/h
510 28-05-2014 17:45:00 16.2 C 11.31 g/m*3 16.2 C 0 km/h
511 28-05-2014 17:50:00 16.2 C 11.17 g/m*3 16.2 C 0 km/h
512 28-05-2014 17:55:00 16.3 C 11.65 g/m*3 16.3 C 0 km/h
513 28-05-2014 18:00:00 16.4 C 11.58 g/m*3 16.4 C 0 km/h
514 28-05-2014 18:05:00 16.6 C 11.44 g/m*3 16.6 C 0 km/h
515 28-05-2014 18:10:00 16.8 C 11.29 g/m*3 16.8 C 0 km/h
516 28-05-2014 18:15:00 17.1 C 11.21 g/m*3 17.1 C 0 km/h
517 28-05-2014 18:20:00 17.2 C 11.57 g/m*3 17.2 C 0 km/h
518 28-05-2014 18:25:00 17.2 C 11.86 g/m*3 17.2 C 0 km/h
519 28-05-2014 18:30:00 17.1 C 11.06 g/m*3 17.1 C 0 km/h
520 28-05-2014 18:35:00 17.1 C 11.79 g/m*3 17.1 C 0 km/h
521 28-05-2014 18:40:00 16.9 C 11.65 g/m*3 16.9 C 0 km/h
522 28-05-2014 18:45:00 16.7 C 11.94 g/m*3 16.7 C 1.6 km/h
523 28-05-2014 18:50:00 16.4 C 11.86 g/m*3 16.4 C 1.6 km/h
524 28-05-2014 18:55:00 16.3 C 11.79 g/m*3 16.3 C 0 km/h
525 28-05-2014 19:00:00 16.3 C 11.79 g/m*3 16.3 C 0 km/h
Sensor: Nr:Datum:Temp:Abs-Feuchte:Windchill:Wind:
Aussen-T/F 526 28-05-2014 19:05:00 16.3 C 11.65 g/m*3 16.3 C 0 km/h
527 28-05-2014 19:10:00 16.2 C 11.72 g/m*3 16.2 C 0 km/h
528 28-05-2014 19:15:00 16.1 C 11.79 g/m*3 16.1 C 1.6 km/h
529 28-05-2014 19:20:00 16.1 C 11.65 g/m*3 16.1 C 0 km/h
530 28-05-2014 19:25:00 16.1 C 11.65 g/m*3 16.1 C 0 km/h
531 28-05-2014 19:30:00 16.2 C 11.86 g/m*3 16.2 C 0 km/h
532 28-05-2014 19:35:00 16.2 C 11.45 g/m*3 16.2 C 0 km/h
533 28-05-2014 19:40:00 16.2 C 11.58 g/m*3 16.2 C 0 km/h
534 28-05-2014 19:45:00 16.1 C 11.51 g/m*3 16.1 C 1.6 km/h
535 28-05-2014 19:50:00 16 C 10.63 g/m*3 16 C 3.2 km/h
536 28-05-2014 19:55:00 16.1 C 11.38 g/m*3 16.1 C 0 km/h
537 28-05-2014 20:00:00 16.1 C 11.65 g/m*3 16.1 C 3.2 km/h
538 28-05-2014 20:05:00 15.9 C 11.38 g/m*3 15.9 C 0 km/h
539 28-05-2014 20:10:00 15.7 C 11.37 g/m*3 15.7 C 1.6 km/h
540 28-05-2014 20:15:00 15.6 C 11.44 g/m*3 15.6 C 0 km/h
541 28-05-2014 20:20:00 15.3 C 11.36 g/m*3 15.3 C 0 km/h
542 28-05-2014 20:25:00 15.2 C 11.16 g/m*3 15.2 C 1.6 km/h
543 28-05-2014 20:30:00 15.2 C 11.42 g/m*3 15.2 C 1.6 km/h
544 28-05-2014 20:35:00 15.2 C 11.42 g/m*3 15.2 C 0 km/h
545 28-05-2014 20:40:00 15.1 C 11.48 g/m*3 15.1 C 0 km/h
546 28-05-2014 20:45:00 14.9 C 11.34 g/m*3 14.9 C 0 km/h
547 28-05-2014 20:50:00 14.7 C 11.21 g/m*3 14.7 C 0 km/h
548 28-05-2014 20:55:00 14.5 C 11.07 g/m*3 14.5 C 0 km/h
549 28-05-2014 21:00:00 14.3 C 10.93 g/m*3 14.3 C 0 km/h
550 28-05-2014 21:05:00 14.1 C 10.8 g/m*3 14.1 C 0 km/h
Sensor: Nr:Datum:Temp:Abs-Feuchte:Windchill:Wind:
Aussen-T/F 551 28-05-2014 21:10:00 13.9 C 10.67 g/m*3 13.9 C 0 km/h
552 28-05-2014 21:15:00 13.7 C 10.54 g/m*3 13.7 C 1.6 km/h
553 28-05-2014 21:20:00 13.6 C 10.59 g/m*3 13.6 C 0 km/h
554 28-05-2014 21:25:00 13.4 C 10.46 g/m*3 13.4 C 0 km/h
555 28-05-2014 21:30:00 13.3 C 10.51 g/m*3 13.3 C 1.6 km/h
556 28-05-2014 21:35:00 13.2 C 10.33 g/m*3 13.2 C 1.6 km/h
557 28-05-2014 21:40:00 13.1 C 10.27 g/m*3 13.1 C 0 km/h
558 28-05-2014 21:45:00 13.1 C 10.27 g/m*3 13.1 C 0 km/h
559 28-05-2014 21:50:00 13 C 10.32 g/m*3 13 C 0 km/h
560 28-05-2014 21:55:00 12.9 C 10.26 g/m*3 12.9 C 0 km/h
561 28-05-2014 22:00:00 12.9 C 10.37 g/m*3 12.9 C 0 km/h
562 28-05-2014 22:05:00 12.8 C 10.3 g/m*3 12.8 C 0 km/h
563 28-05-2014 22:10:00 12.8 C 10.3 g/m*3 12.8 C 0 km/h
564 28-05-2014 22:15:00 12.7 C 10.24 g/m*3 12.7 C 0 km/h
565 28-05-2014 22:20:00 12.6 C 10.18 g/m*3 12.6 C 0 km/h
566 28-05-2014 22:25:00 12.6 C 10.18 g/m*3 12.6 C 0 km/h
567 28-05-2014 22:30:00 12.5 C 10.11 g/m*3 12.5 C 0 km/h
568 28-05-2014 22:35:00 12.4 C 10.05 g/m*3 12.4 C 0 km/h
569 28-05-2014 22:40:00 12.4 C 10.16 g/m*3 12.4 C 0 km/h
570 28-05-2014 22:45:00 12.3 C 10.1 g/m*3 12.3 C 0 km/h
571 28-05-2014 22:50:00 12.3 C 9.99 g/m*3 12.3 C 0 km/h
572 28-05-2014 22:55:00 12.2 C 9.93 g/m*3 12.2 C 0 km/h
573 28-05-2014 23:00:00 12.1 C 9.87 g/m*3 12.1 C 0 km/h
574 28-05-2014 23:05:00 12.1 C 9.87 g/m*3 12.1 C 0 km/h
575 28-05-2014 23:10:00 11.9 C 9.74 g/m*3 11.9 C 0 km/h
Sensor: Nr:Datum:Temp:Abs-Feuchte:Windchill:Wind:
Aussen-T/F 576 28-05-2014 23:15:00 11.9 C 9.85 g/m*3 11.9 C 0 km/h
577 28-05-2014 23:20:00 11.8 C 9.79 g/m*3 11.8 C 0 km/h
578 28-05-2014 23:25:00 11.8 C 9.79 g/m*3 11.8 C 0 km/h
579 28-05-2014 23:30:00 11.7 C 9.73 g/m*3 11.7 C 0 km/h
580 28-05-2014 23:35:00 11.7 C 9.83 g/m*3 11.7 C 0 km/h
581 28-05-2014 23:40:00 11.6 C 9.67 g/m*3 11.6 C 0 km/h
582 28-05-2014 23:45:00 11.5 C 9.71 g/m*3 11.5 C 0 km/h
583 28-05-2014 23:50:00 11.4 C 9.65 g/m*3 11.4 C 0 km/h
584 28-05-2014 23:55:00 11.4 C 9.65 g/m*3 11.4 C 0 km/h
585 29-05-2014 00:00:00 11.4 C 9.65 g/m*3 11.4 C 0 km/h
586 29-05-2014 00:05:00 11.4 C 9.65 g/m*3 11.4 C 0 km/h
587 29-05-2014 00:10:00 11.3 C 9.59 g/m*3 11.3 C 0 km/h
588 29-05-2014 00:15:00 11.2 C 9.53 g/m*3 11.2 C 0 km/h
589 29-05-2014 00:20:00 11.1 C 9.47 g/m*3 11.1 C 0 km/h
590 29-05-2014 00:25:00 11.1 C 9.57 g/m*3 11.1 C 0 km/h
591 29-05-2014 00:30:00 11.1 C 9.57 g/m*3 11.1 C 0 km/h
592 29-05-2014 00:35:00 11.1 C 9.57 g/m*3 11.1 C 0 km/h
593 29-05-2014 00:40:00 11.1 C 9.57 g/m*3 11.1 C 0 km/h
594 29-05-2014 00:45:00 11.1 C 9.57 g/m*3 11.1 C 0 km/h
595 29-05-2014 00:50:00 11.1 C 9.57 g/m*3 11.1 C 0 km/h
596 29-05-2014 00:55:00 11 C 9.51 g/m*3 11 C 0 km/h
597 29-05-2014 01:00:00 10.9 C 9.45 g/m*3 10.9 C 0 km/h
598 29-05-2014 01:05:00 10.9 C 9.45 g/m*3 10.9 C 0 km/h
599 29-05-2014 01:10:00 10.8 C 9.39 g/m*3 10.8 C 0 km/h
600 29-05-2014 01:15:00 10.8 C 9.39 g/m*3 10.8 C 0 km/h
Sensor: Nr:Datum:Temp:Abs-Feuchte:Windchill:Wind:
Aussen-T/F 601 29-05-2014 01:20:00 10.7 C 9.33 g/m*3 10.7 C 0 km/h
602 29-05-2014 01:25:00 10.7 C 9.33 g/m*3 10.7 C 1.6 km/h
603 29-05-2014 01:30:00 10.6 C 9.27 g/m*3 10.6 C 0 km/h
604 29-05-2014 01:35:00 10.6 C 9.27 g/m*3 10.6 C 0 km/h
605 29-05-2014 01:40:00 10.5 C 9.21 g/m*3 10.5 C 0 km/h
606 29-05-2014 01:45:00 10.4 C 9.25 g/m*3 10.4 C 0 km/h
607 29-05-2014 01:50:00 10.4 C 9.16 g/m*3 10.4 C 0 km/h
608 29-05-2014 01:55:00 10.3 C 9.19 g/m*3 10.3 C 1.6 km/h
609 29-05-2014 02:00:00 10.3 C 9.19 g/m*3 10.3 C 1.6 km/h
610 29-05-2014 02:05:00 10.3 C 9.19 g/m*3 10.3 C 0 km/h
611 29-05-2014 02:10:00 10.3 C 9.19 g/m*3 10.3 C 0 km/h
612 29-05-2014 02:15:00 10.2 C 9.14 g/m*3 10.2 C 0 km/h
613 29-05-2014 02:20:00 10.2 C 9.14 g/m*3 10.2 C 0 km/h
614 29-05-2014 02:25:00 10.1 C 9.08 g/m*3 10.1 C 0 km/h
615 29-05-2014 02:30:00 10.2 C 9.14 g/m*3 10.2 C 0 km/h
616 29-05-2014 02:35:00 10.1 C 9.08 g/m*3 10.1 C 0 km/h
617 29-05-2014 02:40:00 10.1 C 9.08 g/m*3 10.1 C 0 km/h
618 29-05-2014 02:45:00 10.1 C 9.08 g/m*3 10.1 C 0 km/h
619 29-05-2014 02:50:00 9.9 C 8.96 g/m*3 9.9 C 0 km/h
620 29-05-2014 02:55:00 9.9 C 8.96 g/m*3 9.9 C 0 km/h
621 29-05-2014 03:00:00 9.9 C 8.96 g/m*3 9.9 C 0 km/h
622 29-05-2014 03:05:00 9.9 C 8.96 g/m*3 9.9 C 0 km/h
623 29-05-2014 03:10:00 9.9 C 8.96 g/m*3 9.9 C 0 km/h
624 29-05-2014 03:15:00 9.9 C 8.96 g/m*3 9.9 C 0 km/h
625 29-05-2014 03:20:00 9.9 C 8.96 g/m*3 9.9 C 0 km/h
Sensor: Nr:Datum:Temp:Abs-Feuchte:Windchill:Wind:
Aussen-T/F 626 29-05-2014 03:25:00 9.9 C 8.96 g/m*3 9.9 C 0 km/h
627 29-05-2014 03:30:00 9.9 C 8.96 g/m*3 9.9 C 0 km/h
628 29-05-2014 03:35:00 9.9 C 8.96 g/m*3 9.9 C 0 km/h
629 29-05-2014 03:40:00 9.8 C 8.91 g/m*3 9.8 C 0 km/h
630 29-05-2014 03:45:00 9.8 C 8.91 g/m*3 9.8 C 0 km/h
631 29-05-2014 03:50:00 9.7 C 8.85 g/m*3 9.7 C 0 km/h
632 29-05-2014 03:55:00 9.6 C 8.79 g/m*3 9.6 C 0 km/h
633 29-05-2014 04:00:00 9.6 C 8.79 g/m*3 9.6 C 0 km/h
634 29-05-2014 04:05:00 9.6 C 8.79 g/m*3 9.6 C 0 km/h
635 29-05-2014 04:10:00 9.5 C 8.74 g/m*3 9.5 C 0 km/h
636 29-05-2014 04:15:00 9.6 C 8.89 g/m*3 9.6 C 0 km/h
637 29-05-2014 04:20:00 9.7 C 8.94 g/m*3 9.7 C 0 km/h
638 29-05-2014 04:25:00 9.8 C 9 g/m*3 9.8 C 0 km/h
639 29-05-2014 04:30:00 9.8 C 9 g/m*3 9.8 C 3.2 km/h
640 29-05-2014 04:35:00 9.9 C 9.06 g/m*3 9.9 C 0 km/h
641 29-05-2014 04:40:00 9.9 C 9.06 g/m*3 9.9 C 4.8 km/h
642 29-05-2014 04:45:00 9.9 C 9.06 g/m*3 9.9 C 0 km/h
643 29-05-2014 04:50:00 9.8 C 8.91 g/m*3 9.8 C 1.6 km/h
644 29-05-2014 04:55:00 9.7 C 8.94 g/m*3 9.7 C 1.6 km/h
645 29-05-2014 05:00:00 9.7 C 8.94 g/m*3 9.7 C 1.6 km/h
646 29-05-2014 05:05:00 9.7 C 8.85 g/m*3 9.7 C 0 km/h
647 29-05-2014 05:10:00 9.6 C 8.79 g/m*3 9.6 C 0 km/h
648 29-05-2014 05:15:00 9.6 C 8.79 g/m*3 9.6 C 1.6 km/h
649 29-05-2014 05:20:00 9.6 C 8.79 g/m*3 9.6 C 0 km/h
650 29-05-2014 05:25:00 9.6 C 8.79 g/m*3 9.6 C 0 km/h
Sensor: Nr:Datum:Temp:Abs-Feuchte:Windchill:Wind:
Aussen-T/F 651 29-05-2014 05:30:00 9.4 C 8.68 g/m*3 9.4 C 0 km/h
652 29-05-2014 05:35:00 9.4 C 8.77 g/m*3 9.4 C 0 km/h
653 29-05-2014 05:40:00 9.4 C 8.77 g/m*3 8.28 C 8.1 km/h
654 29-05-2014 05:45:00 9.4 C 8.77 g/m*3 9.4 C 3.2 km/h
655 29-05-2014 05:50:00 9.4 C 8.77 g/m*3 9.4 C 4.8 km/h
656 29-05-2014 05:55:00 9.4 C 8.77 g/m*3 9.4 C 1.6 km/h
657 29-05-2014 06:00:00 9.5 C 8.83 g/m*3 9.5 C 4.8 km/h
658 29-05-2014 06:05:00 9.5 C 8.83 g/m*3 9.5 C 4.8 km/h
659 29-05-2014 06:10:00 9.4 C 8.77 g/m*3 9.4 C 0 km/h
660 29-05-2014 06:15:00 9.4 C 8.77 g/m*3 9.4 C 3.2 km/h
661 29-05-2014 06:20:00 9.4 C 8.77 g/m*3 9.4 C 4.8 km/h
662 29-05-2014 06:25:00 9.5 C 8.83 g/m*3 8.09 C 9.7 km/h
663 29-05-2014 06:30:00 9.5 C 8.83 g/m*3 9.5 C 1.6 km/h
664 29-05-2014 06:35:00 9.6 C 8.89 g/m*3 9.6 C 3.2 km/h
665 29-05-2014 06:40:00 9.6 C 8.89 g/m*3 9.6 C 4.8 km/h
666 29-05-2014 06:45:00 9.6 C 8.89 g/m*3 9.6 C 4.8 km/h
667 29-05-2014 06:50:00 9.6 C 8.89 g/m*3 9.6 C 3.2 km/h
668 29-05-2014 06:55:00 9.7 C 8.94 g/m*3 9.7 C 3.2 km/h
669 29-05-2014 07:00:00 9.6 C 8.89 g/m*3 9.6 C 4.8 km/h
670 29-05-2014 07:05:00 9.7 C 8.94 g/m*3 9.7 C 4.8 km/h
671 29-05-2014 07:10:00 9.7 C 8.94 g/m*3 9.7 C 3.2 km/h
672 29-05-2014 07:15:00 9.7 C 8.94 g/m*3 9.02 C 6.4 km/h
673 29-05-2014 07:20:00 9.7 C 8.94 g/m*3 9.02 C 6.4 km/h
674 29-05-2014 07:25:00 9.7 C 8.94 g/m*3 9.02 C 6.4 km/h
675 29-05-2014 07:30:00 9.7 C 8.94 g/m*3 9.02 C 6.4 km/h
Sensor: Nr:Datum:Temp:Abs-Feuchte:Windchill:Wind:
Aussen-T/F 676 29-05-2014 07:35:00 9.7 C 8.94 g/m*3 8.33 C 9.7 km/h
677 29-05-2014 07:40:00 9.7 C 8.94 g/m*3 9.02 C 6.4 km/h
678 29-05-2014 07:45:00 9.8 C 9 g/m*3 9.14 C 6.4 km/h
679 29-05-2014 07:50:00 9.8 C 9 g/m*3 8.75 C 8.1 km/h
680 29-05-2014 07:55:00 9.9 C 9.06 g/m*3 8.87 C 8.1 km/h
681 29-05-2014 08:00:00 9.9 C 9.06 g/m*3 9.9 C 3.2 km/h
682 29-05-2014 08:05:00 10.1 C 9.17 g/m*3 10.1 C 0 km/h
683 29-05-2014 08:10:00 10.1 C 9.17 g/m*3 10.1 C 4.8 km/h
684 29-05-2014 08:15:00 10.1 C 9.17 g/m*3 10.1 C 4.8 km/h
685 29-05-2014 08:20:00 10.3 C 9.29 g/m*3 10.3 C 4.8 km/h
686 29-05-2014 08:25:00 10.4 C 9.35 g/m*3 10.4 C 4.8 km/h
687 29-05-2014 08:30:00 10.4 C 9.35 g/m*3 10.4 C 4.8 km/h
688 29-05-2014 08:35:00 10.6 C 9.47 g/m*3 10.6 C 3.2 km/h
689 29-05-2014 08:40:00 10.7 C 9.53 g/m*3 10.7 C 3.2 km/h
690 29-05-2014 08:45:00 10.8 C 9.59 g/m*3 10.8 C 4.8 km/h
691 29-05-2014 08:50:00 10.9 C 9.55 g/m*3 10.9 C 4.8 km/h
692 29-05-2014 08:55:00 10.9 C 9.55 g/m*3 10.9 C 4.8 km/h
693 29-05-2014 09:00:00 11.1 C 9.67 g/m*3 11.1 C 3.2 km/h
694 29-05-2014 09:05:00 11.2 C 9.73 g/m*3 11.2 C 3.2 km/h
695 29-05-2014 09:10:00 11.2 C 9.73 g/m*3 11.2 C 4.8 km/h
696 29-05-2014 09:15:00 11.3 C 9.69 g/m*3 11.3 C 3.2 km/h
697 29-05-2014 09:20:00 11.5 C 9.81 g/m*3 11.5 C 1.6 km/h
698 29-05-2014 09:25:00 11.7 C 9.94 g/m*3 11.7 C 3.2 km/h
699 29-05-2014 09:30:00 11.8 C 10 g/m*3 11.8 C 1.6 km/h
700 29-05-2014 09:35:00 12.1 C 10.08 g/m*3 12.1 C 3.2 km/h
Sensor: Nr:Datum:Temp:Abs-Feuchte:Windchill:Wind:
Aussen-T/F 701 29-05-2014 09:40:00 12.2 C 10.14 g/m*3 12.2 C 3.2 km/h
702 29-05-2014 09:45:00 12.3 C 10.1 g/m*3 12.3 C 3.2 km/h
703 29-05-2014 09:50:00 12.6 C 10.29 g/m*3 12.6 C 3.2 km/h
704 29-05-2014 09:55:00 12.8 C 10.42 g/m*3 12.8 C 4.8 km/h
705 29-05-2014 10:00:00 12.9 C 10.48 g/m*3 12.9 C 3.2 km/h
706 29-05-2014 10:05:00 13.2 C 10.56 g/m*3 13.2 C 1.6 km/h
707 29-05-2014 10:10:00 13.3 C 10.51 g/m*3 13.3 C 0 km/h
708 29-05-2014 10:15:00 13.4 C 10.58 g/m*3 13.4 C 1.6 km/h
709 29-05-2014 10:20:00 13.6 C 10.71 g/m*3 13.6 C 1.6 km/h
710 29-05-2014 10:25:00 13.8 C 10.84 g/m*3 13.8 C 3.2 km/h
711 29-05-2014 10:30:00 14.1 C 10.92 g/m*3 14.1 C 0 km/h
712 29-05-2014 10:35:00 14.2 C 10.99 g/m*3 14.2 C 0 km/h
713 29-05-2014 10:40:00 14.5 C 11.07 g/m*3 14.5 C 0 km/h
714 29-05-2014 10:45:00 14.7 C 11.21 g/m*3 14.7 C 3.2 km/h
715 29-05-2014 10:50:00 14.9 C 11.22 g/m*3 14.9 C 1.6 km/h
716 29-05-2014 10:55:00 15.1 C 11.22 g/m*3 15.1 C 3.2 km/h
717 29-05-2014 11:00:00 15.2 C 11.29 g/m*3 15.2 C 1.6 km/h
718 29-05-2014 11:05:00 15.2 C 11.03 g/m*3 15.2 C 0 km/h
719 29-05-2014 11:10:00 15.3 C 11.1 g/m*3 15.3 C 3.2 km/h
720 29-05-2014 11:15:00 15.4 C 11.04 g/m*3 15.4 C 4.8 km/h
721 29-05-2014 11:20:00 15.6 C 11.17 g/m*3 15.6 C 3.2 km/h
722 29-05-2014 11:25:00 15.7 C 11.11 g/m*3 15.7 C 1.6 km/h
723 29-05-2014 11:30:00 15.9 C 11.51 g/m*3 15.9 C 3.2 km/h
724 29-05-2014 11:35:00 16.2 C 11.72 g/m*3 16.2 C 0 km/h
725 29-05-2014 11:40:00 16.3 C 11.52 g/m*3 16.3 C 3.2 km/h
Sensor: Nr:Datum:Temp:Abs-Feuchte:Windchill:Wind:
Aussen-T/F 726 29-05-2014 11:45:00 16.4 C 11.31 g/m*3 16.4 C 0 km/h
727 29-05-2014 11:50:00 16.6 C 11.44 g/m*3 16.6 C 0 km/h
728 29-05-2014 11:55:00 16.7 C 11.51 g/m*3 16.7 C 6.4 km/h
729 29-05-2014 12:00:00 16.9 C 11.36 g/m*3 16.9 C 6.4 km/h
730 29-05-2014 12:05:00 17.1 C 11.5 g/m*3 17.1 C 0 km/h
731 29-05-2014 12:10:00 17.2 C 11.72 g/m*3 17.2 C 1.6 km/h
732 29-05-2014 12:15:00 17.3 C 11.49 g/m*3 17.3 C 8.1 km/h
733 29-05-2014 12:20:00 17.5 C 11.78 g/m*3 17.5 C 4.8 km/h
734 29-05-2014 12:25:00 17.5 C 11.33 g/m*3 17.5 C 4.8 km/h
735 29-05-2014 12:30:00 17.8 C 11.69 g/m*3 17.8 C 1.6 km/h
736 29-05-2014 12:35:00 17.8 C 11.38 g/m*3 17.8 C 4.8 km/h
737 29-05-2014 12:40:00 17.8 C 11.23 g/m*3 17.8 C 4.8 km/h
738 29-05-2014 12:45:00 17.7 C 11.01 g/m*3 17.7 C 4.8 km/h
739 29-05-2014 12:50:00 17.7 C 11.01 g/m*3 17.7 C 9.7 km/h
740 29-05-2014 12:55:00 17.8 C 11.54 g/m*3 17.8 C 6.4 km/h
741 29-05-2014 13:00:00 17.9 C 11.45 g/m*3 17.9 C 8.1 km/h
742 29-05-2014 13:05:00 18.2 C 11.35 g/m*3 18.2 C 9.7 km/h
743 29-05-2014 13:10:00 18.4 C 11.17 g/m*3 18.4 C 8.1 km/h
744 29-05-2014 13:15:00 18.7 C 11.21 g/m*3 18.7 C 6.4 km/h
745 29-05-2014 13:20:00 18.9 C 11.02 g/m*3 18.9 C 8.1 km/h
746 29-05-2014 13:25:00 19.1 C 11.31 g/m*3 19.1 C 8.1 km/h
747 29-05-2014 13:30:00 19.3 C 11.61 g/m*3 19.3 C 8.1 km/h
748 29-05-2014 13:35:00 19.4 C 11.35 g/m*3 19.4 C 9.7 km/h
749 29-05-2014 13:40:00 19.2 C 11.38 g/m*3 19.2 C 11.3 km/h
750 29-05-2014 13:45:00 19.1 C 11.31 g/m*3 19.1 C 9.7 km/h
Sensor: Nr:Datum:Temp:Abs-Feuchte:Windchill:Wind:
Aussen-T/F 751 29-05-2014 13:50:00 19.1 C 11.31 g/m*3 19.1 C 11.3 km/h
752 29-05-2014 13:55:00 19.1 C 11.31 g/m*3 19.1 C 11.3 km/h
753 29-05-2014 14:00:00 19.2 C 11.38 g/m*3 19.2 C 9.7 km/h
754 29-05-2014 14:05:00 19.2 C 11.05 g/m*3 19.2 C 9.7 km/h
755 29-05-2014 14:10:00 19.1 C 11.15 g/m*3 19.1 C 4.8 km/h
756 29-05-2014 14:15:00 19 C 11.08 g/m*3 19 C 8.1 km/h
757 29-05-2014 14:20:00 18.9 C 11.18 g/m*3 18.9 C 8.1 km/h
758 29-05-2014 14:25:00 18.8 C 10.95 g/m*3 18.8 C 11.3 km/h
759 29-05-2014 14:30:00 18.8 C 11.11 g/m*3 18.8 C 11.3 km/h
760 29-05-2014 14:35:00 18.8 C 11.11 g/m*3 18.8 C 12.9 km/h
761 29-05-2014 14:40:00 18.7 C 11.05 g/m*3 18.7 C 12.9 km/h
762 29-05-2014 14:45:00 18.5 C 11.23 g/m*3 18.5 C 6.4 km/h
763 29-05-2014 14:50:00 18.4 C 11.17 g/m*3 18.4 C 9.7 km/h
764 29-05-2014 14:55:00 18.4 C 11.17 g/m*3 18.4 C 11.3 km/h
765 29-05-2014 15:00:00 18.3 C 11.26 g/m*3 18.3 C 9.7 km/h
766 29-05-2014 15:05:00 18.2 C 11.19 g/m*3 18.2 C 8.1 km/h
767 29-05-2014 15:10:00 18.2 C 11.19 g/m*3 18.2 C 11.3 km/h
768 29-05-2014 15:15:00 18.2 C 11.35 g/m*3 18.2 C 11.3 km/h
769 29-05-2014 15:20:00 18.2 C 11.04 g/m*3 18.2 C 9.7 km/h
770 29-05-2014 15:25:00 18.1 C 10.97 g/m*3 18.1 C 11.3 km/h
771 29-05-2014 15:30:00 18.1 C 10.97 g/m*3 18.1 C 9.7 km/h
772 29-05-2014 15:35:00 17.9 C 10.69 g/m*3 17.9 C 14.5 km/h
773 29-05-2014 15:40:00 17.7 C 10.71 g/m*3 17.7 C 9.7 km/h
774 29-05-2014 15:45:00 17.5 C 10.73 g/m*3 17.5 C 8.1 km/h
775 29-05-2014 15:50:00 17.3 C 10.61 g/m*3 17.3 C 6.4 km/h
Sensor: Nr:Datum:Temp:Abs-Feuchte:Windchill:Wind:
Aussen-T/F 776 29-05-2014 15:55:00 17.2 C 10.54 g/m*3 17.2 C 8.1 km/h
777 29-05-2014 16:00:00 17.1 C 10.63 g/m*3 17.1 C 8.1 km/h
778 29-05-2014 16:05:00 17.1 C 10.63 g/m*3 17.1 C 6.4 km/h
779 29-05-2014 16:10:00 17 C 10.56 g/m*3 17 C 6.4 km/h
780 29-05-2014 16:15:00 17 C 10.85 g/m*3 17 C 8.1 km/h
781 29-05-2014 16:20:00 16.9 C 10.79 g/m*3 16.9 C 8.1 km/h
782 29-05-2014 16:25:00 16.9 C 10.79 g/m*3 16.9 C 8.1 km/h
783 29-05-2014 16:30:00 16.9 C 10.64 g/m*3 16.9 C 8.1 km/h
784 29-05-2014 16:35:00 16.8 C 10.58 g/m*3 16.8 C 12.9 km/h
785 29-05-2014 16:40:00 16.7 C 10.52 g/m*3 16.7 C 9.7 km/h
786 29-05-2014 16:45:00 16.7 C 10.66 g/m*3 16.7 C 8.1 km/h
787 29-05-2014 16:50:00 16.7 C 10.66 g/m*3 16.7 C 8.1 km/h
788 29-05-2014 16:55:00 16.7 C 10.8 g/m*3 16.7 C 8.1 km/h
789 29-05-2014 17:00:00 16.7 C 10.8 g/m*3 16.7 C 8.1 km/h
790 29-05-2014 17:05:00 16.6 C 10.74 g/m*3 16.6 C 8.1 km/h
791 29-05-2014 17:10:00 16.6 C 10.74 g/m*3 16.6 C 6.4 km/h
792 29-05-2014 17:15:00 16.5 C 10.53 g/m*3 16.5 C 9.7 km/h
793 29-05-2014 17:20:00 16.5 C 10.67 g/m*3 16.5 C 8.1 km/h
794 29-05-2014 17:25:00 16.4 C 10.47 g/m*3 16.4 C 9.7 km/h
795 29-05-2014 17:30:00 16.4 C 10.61 g/m*3 16.4 C 9.7 km/h
796 29-05-2014 17:35:00 16.3 C 10.68 g/m*3 16.3 C 9.7 km/h
797 29-05-2014 17:40:00 16.3 C 10.82 g/m*3 16.3 C 9.7 km/h
798 29-05-2014 17:45:00 16.3 C 10.68 g/m*3 16.3 C 9.7 km/h
799 29-05-2014 17:50:00 16.2 C 10.62 g/m*3 16.2 C 8.1 km/h
800 29-05-2014 17:55:00 16.1 C 10.55 g/m*3 16.1 C 6.4 km/h
Sensor: Nr:Datum:Temp:Abs-Feuchte:Windchill:Wind:
Aussen-T/F 801 29-05-2014 18:00:00 16 C 10.63 g/m*3 16 C 6.4 km/h
802 29-05-2014 18:05:00 15.9 C 10.7 g/m*3 15.9 C 8.1 km/h
803 29-05-2014 18:10:00 15.9 C 10.56 g/m*3 15.9 C 9.7 km/h
804 29-05-2014 18:15:00 15.8 C 10.5 g/m*3 15.8 C 4.8 km/h
805 29-05-2014 18:20:00 15.7 C 10.57 g/m*3 15.7 C 6.4 km/h
806 29-05-2014 18:25:00 15.7 C 10.57 g/m*3 15.7 C 8.1 km/h
807 29-05-2014 18:30:00 15.6 C 10.51 g/m*3 15.6 C 8.1 km/h
808 29-05-2014 18:35:00 15.6 C 10.64 g/m*3 15.6 C 4.8 km/h
809 29-05-2014 18:40:00 15.6 C 10.91 g/m*3 15.6 C 4.8 km/h
810 29-05-2014 18:45:00 15.4 C 10.77 g/m*3 15.4 C 6.4 km/h
811 29-05-2014 18:50:00 15.3 C 10.84 g/m*3 15.3 C 4.8 km/h
812 29-05-2014 18:55:00 15.3 C 10.97 g/m*3 15.3 C 3.2 km/h
813 29-05-2014 19:00:00 15.2 C 11.16 g/m*3 15.2 C 3.2 km/h
814 29-05-2014 19:05:00 15.1 C 10.84 g/m*3 15.1 C 4.8 km/h
815 29-05-2014 19:10:00 14.9 C 10.58 g/m*3 14.9 C 6.4 km/h
816 29-05-2014 19:15:00 14.8 C 10.77 g/m*3 14.8 C 3.2 km/h
817 29-05-2014 19:20:00 14.8 C 10.77 g/m*3 14.8 C 4.8 km/h
818 29-05-2014 19:25:00 14.8 C 10.89 g/m*3 14.8 C 0 km/h
819 29-05-2014 19:30:00 14.8 C 11.02 g/m*3 14.8 C 0 km/h
820 29-05-2014 19:35:00 14.8 C 10.77 g/m*3 14.8 C 4.8 km/h
821 29-05-2014 19:40:00 14.8 C 10.77 g/m*3 14.8 C 3.2 km/h
822 29-05-2014 19:45:00 14.7 C 10.7 g/m*3 14.7 C 3.2 km/h
823 29-05-2014 19:50:00 14.8 C 10.89 g/m*3 14.8 C 3.2 km/h
824 29-05-2014 19:55:00 14.7 C 10.7 g/m*3 14.7 C 4.8 km/h
825 29-05-2014 20:00:00 14.7 C 10.7 g/m*3 14.7 C 4.8 km/h
Sensor: Nr:Datum:Temp:Abs-Feuchte:Windchill:Wind:
Aussen-T/F 826 29-05-2014 20:05:00 14.7 C 10.7 g/m*3 14.7 C 4.8 km/h
827 29-05-2014 20:10:00 14.6 C 10.64 g/m*3 14.6 C 4.8 km/h
828 29-05-2014 20:15:00 14.6 C 10.64 g/m*3 14.6 C 4.8 km/h
829 29-05-2014 20:20:00 14.6 C 10.76 g/m*3 14.6 C 0 km/h
830 29-05-2014 20:25:00 14.5 C 10.82 g/m*3 14.5 C 0 km/h
831 29-05-2014 20:30:00 14.4 C 10.88 g/m*3 14.4 C 0 km/h
832 29-05-2014 20:35:00 14.3 C 10.93 g/m*3 14.3 C 0 km/h
833 29-05-2014 20:40:00 14.2 C 10.87 g/m*3 14.2 C 0 km/h
834 29-05-2014 20:45:00 14.1 C 10.92 g/m*3 14.1 C 1.6 km/h
835 29-05-2014 20:50:00 13.9 C 10.79 g/m*3 13.9 C 3.2 km/h
836 29-05-2014 20:55:00 13.9 C 10.91 g/m*3 13.9 C 0 km/h
837 29-05-2014 21:00:00 13.8 C 10.84 g/m*3 13.8 C 0 km/h
838 29-05-2014 21:05:00 13.8 C 10.84 g/m*3 13.8 C 0 km/h
839 29-05-2014 21:10:00 13.8 C 10.96 g/m*3 13.8 C 0 km/h
840 29-05-2014 21:15:00 13.7 C 10.89 g/m*3 13.7 C 0 km/h
841 29-05-2014 21:20:00 13.7 C 10.89 g/m*3 13.7 C 0 km/h
842 29-05-2014 21:25:00 13.7 C 10.89 g/m*3 13.7 C 1.6 km/h
843 29-05-2014 21:30:00 13.7 C 10.89 g/m*3 13.7 C 0 km/h
844 29-05-2014 21:35:00 13.7 C 10.89 g/m*3 13.7 C 0 km/h
845 29-05-2014 21:40:00 13.6 C 10.95 g/m*3 13.6 C 0 km/h
846 29-05-2014 21:45:00 13.6 C 10.95 g/m*3 13.6 C 0 km/h
847 29-05-2014 21:50:00 13.6 C 10.95 g/m*3 13.6 C 0 km/h
848 29-05-2014 21:55:00 13.5 C 10.88 g/m*3 13.5 C 0 km/h
849 29-05-2014 22:00:00 13.5 C 10.76 g/m*3 13.5 C 9.7 km/h
850 29-05-2014 22:05:00 13.4 C 10.46 g/m*3 13.4 C 3.2 km/h
Sensor: Nr:Datum:Temp:Abs-Feuchte:Windchill:Wind:
Aussen-T/F 851 29-05-2014 22:10:00 13.3 C 10.28 g/m*3 13.3 C 8.1 km/h
852 29-05-2014 22:15:00 13.3 C 10.17 g/m*3 13.3 C 11.3 km/h
853 29-05-2014 22:20:00 13.2 C 10.1 g/m*3 13.2 C 8.1 km/h
854 29-05-2014 22:25:00 13.1 C 9.93 g/m*3 13.1 C 4.8 km/h
855 29-05-2014 22:30:00 13 C 9.87 g/m*3 13 C 8.1 km/h
856 29-05-2014 22:35:00 12.9 C 9.81 g/m*3 12.9 C 8.1 km/h
857 29-05-2014 22:40:00 12.8 C 9.63 g/m*3 12.8 C 6.4 km/h
858 29-05-2014 22:45:00 12.8 C 9.63 g/m*3 12.8 C 1.6 km/h
859 29-05-2014 22:50:00 12.7 C 9.57 g/m*3 12.7 C 6.4 km/h
860 29-05-2014 22:55:00 12.6 C 9.4 g/m*3 12.6 C 4.8 km/h
861 29-05-2014 23:00:00 12.6 C 9.51 g/m*3 12.6 C 11.3 km/h
862 29-05-2014 23:05:00 12.5 C 9.35 g/m*3 12.5 C 12.9 km/h
863 29-05-2014 23:10:00 12.4 C 9.4 g/m*3 12.4 C 8.1 km/h
864 29-05-2014 23:15:00 12.4 C 9.4 g/m*3 12.4 C 6.4 km/h
865 29-05-2014 23:20:00 12.4 C 9.4 g/m*3 12.4 C 4.8 km/h
866 29-05-2014 23:25:00 12.3 C 9.34 g/m*3 12.3 C 4.8 km/h
867 29-05-2014 23:30:00 12.3 C 9.34 g/m*3 12.3 C 4.8 km/h
868 29-05-2014 23:35:00 12.3 C 9.34 g/m*3 12.3 C 8.1 km/h
869 29-05-2014 23:40:00 12.3 C 9.34 g/m*3 12.3 C 11.3 km/h
870 29-05-2014 23:45:00 12.3 C 9.34 g/m*3 12.3 C 4.8 km/h
871 29-05-2014 23:50:00 12.2 C 9.28 g/m*3 12.2 C 4.8 km/h
872 29-05-2014 23:55:00 12.1 C 9.22 g/m*3 12.1 C 6.4 km/h
873 30-05-2014 00:00:00 12.1 C 9.22 g/m*3 12.1 C 8.1 km/h
874 30-05-2014 00:05:00 12.1 C 9.22 g/m*3 12.1 C 4.8 km/h
875 30-05-2014 00:10:00 12 C 9.06 g/m*3 12 C 6.4 km/h
Sensor: Nr:Datum:Temp:Abs-Feuchte:Windchill:Wind:
Aussen-T/F 876 30-05-2014 00:15:00 11.9 C 9 g/m*3 11.9 C 6.4 km/h
877 30-05-2014 00:20:00 11.9 C 9 g/m*3 11.9 C 8.1 km/h
878 30-05-2014 00:25:00 11.9 C 9 g/m*3 11.9 C 8.1 km/h
879 30-05-2014 00:30:00 11.8 C 8.95 g/m*3 11.8 C 8.1 km/h
880 30-05-2014 00:35:00 11.8 C 8.95 g/m*3 11.8 C 3.2 km/h
881 30-05-2014 00:40:00 11.8 C 8.95 g/m*3 11.8 C 4.8 km/h
882 30-05-2014 00:45:00 11.7 C 8.89 g/m*3 11.7 C 9.7 km/h
883 30-05-2014 00:50:00 11.7 C 8.89 g/m*3 11.7 C 9.7 km/h
884 30-05-2014 00:55:00 11.6 C 8.94 g/m*3 11.6 C 4.8 km/h
885 30-05-2014 01:00:00 11.6 C 8.94 g/m*3 11.6 C 6.4 km/h
886 30-05-2014 01:05:00 11.5 C 8.88 g/m*3 11.5 C 8.1 km/h
887 30-05-2014 01:10:00 11.5 C 8.88 g/m*3 11.5 C 6.4 km/h
888 30-05-2014 01:15:00 11.4 C 8.72 g/m*3 11.4 C 8.1 km/h
889 30-05-2014 01:20:00 11.4 C 8.72 g/m*3 11.4 C 8.1 km/h
890 30-05-2014 01:25:00 11.3 C 8.57 g/m*3 11.3 C 8.1 km/h
891 30-05-2014 01:30:00 11.3 C 8.57 g/m*3 11.3 C 4.8 km/h
892 30-05-2014 01:35:00 11.2 C 8.51 g/m*3 11.2 C 9.7 km/h
893 30-05-2014 01:40:00 11.2 C 8.51 g/m*3 11.2 C 6.4 km/h
894 30-05-2014 01:45:00 11.2 C 8.51 g/m*3 11.2 C 6.4 km/h
895 30-05-2014 01:50:00 11.2 C 8.41 g/m*3 11.2 C 14.5 km/h
896 30-05-2014 01:55:00 11.1 C 8.36 g/m*3 11.1 C 12.9 km/h
897 30-05-2014 02:00:00 11.1 C 8.46 g/m*3 11.1 C 3.2 km/h
898 30-05-2014 02:05:00 11.1 C 8.36 g/m*3 11.1 C 4.8 km/h
899 30-05-2014 02:10:00 11.1 C 8.36 g/m*3 11.1 C 3.2 km/h
900 30-05-2014 02:15:00 11.1 C 8.36 g/m*3 11.1 C 3.2 km/h
Sensor: Nr:Datum:Temp:Abs-Feuchte:Windchill:Wind:
Aussen-T/F 901 30-05-2014 02:20:00 11.1 C 8.46 g/m*3 11.1 C 1.6 km/h
902 30-05-2014 02:25:00 11.1 C 8.46 g/m*3 11.1 C 4.8 km/h
903 30-05-2014 02:30:00 11.1 C 8.46 g/m*3 11.1 C 3.2 km/h
904 30-05-2014 02:35:00 11.1 C 8.56 g/m*3 11.1 C 1.6 km/h
905 30-05-2014 02:40:00 11.1 C 8.56 g/m*3 11.1 C 3.2 km/h
906 30-05-2014 02:45:00 11.1 C 8.56 g/m*3 11.1 C 1.6 km/h
907 30-05-2014 02:50:00 11.1 C 8.56 g/m*3 11.1 C 1.6 km/h
908 30-05-2014 02:55:00 11.1 C 8.56 g/m*3 11.1 C 6.4 km/h
909 30-05-2014 03:00:00 11.1 C 8.56 g/m*3 11.1 C 0 km/h
910 30-05-2014 03:05:00 11 C 8.51 g/m*3 11 C 3.2 km/h
911 30-05-2014 03:10:00 10.9 C 8.26 g/m*3 10.41 C 6.4 km/h
912 30-05-2014 03:15:00 10.9 C 8.26 g/m*3 10.9 C 3.2 km/h
913 30-05-2014 03:20:00 10.9 C 8.26 g/m*3 10.9 C 3.2 km/h
914 30-05-2014 03:25:00 10.9 C 8.26 g/m*3 10.9 C 3.2 km/h
915 30-05-2014 03:30:00 10.9 C 8.36 g/m*3 10.9 C 1.6 km/h
916 30-05-2014 03:35:00 10.9 C 8.26 g/m*3 10.9 C 4.8 km/h
917 30-05-2014 03:40:00 10.9 C 8.26 g/m*3 10.9 C 3.2 km/h
918 30-05-2014 03:45:00 10.8 C 8.2 g/m*3 10.8 C 3.2 km/h
919 30-05-2014 03:50:00 10.8 C 8.2 g/m*3 10.8 C 4.8 km/h
920 30-05-2014 03:55:00 10.8 C 8.2 g/m*3 10.8 C 3.2 km/h
921 30-05-2014 04:00:00 10.8 C 8.11 g/m*3 10.8 C 1.6 km/h
922 30-05-2014 04:05:00 10.8 C 8.2 g/m*3 10.8 C 4.8 km/h
923 30-05-2014 04:10:00 10.7 C 8.05 g/m*3 10.7 C 1.6 km/h
924 30-05-2014 04:15:00 10.7 C 8.05 g/m*3 10.7 C 0 km/h
925 30-05-2014 04:20:00 10.7 C 8.15 g/m*3 10.7 C 0 km/h
Sensor: Nr:Datum:Temp:Abs-Feuchte:Windchill:Wind:
Aussen-T/F 926 30-05-2014 04:25:00 10.7 C 8.15 g/m*3 10.7 C 0 km/h
927 30-05-2014 04:30:00 10.7 C 8.25 g/m*3 10.7 C 0 km/h
928 30-05-2014 04:35:00 10.7 C 8.15 g/m*3 10.7 C 4.8 km/h
929 30-05-2014 04:40:00 10.6 C 8 g/m*3 10.6 C 4.8 km/h
930 30-05-2014 04:45:00 10.6 C 8.1 g/m*3 10.6 C 1.6 km/h
931 30-05-2014 04:50:00 10.6 C 8 g/m*3 10.6 C 3.2 km/h
932 30-05-2014 04:55:00 10.6 C 8 g/m*3 10.6 C 3.2 km/h
933 30-05-2014 05:00:00 10.6 C 8.1 g/m*3 10.6 C 0 km/h
934 30-05-2014 05:05:00 10.6 C 8 g/m*3 10.6 C 3.2 km/h
935 30-05-2014 05:10:00 10.6 C 8.1 g/m*3 10.6 C 0 km/h
936 30-05-2014 05:15:00 10.6 C 8.2 g/m*3 10.6 C 1.6 km/h
937 30-05-2014 05:20:00 10.5 C 8.15 g/m*3 10.5 C 0 km/h
938 30-05-2014 05:25:00 10.4 C 8.1 g/m*3 10.4 C 0 km/h
939 30-05-2014 05:30:00 10.4 C 8 g/m*3 10.4 C 1.6 km/h
940 30-05-2014 05:35:00 10.4 C 8.1 g/m*3 10.4 C 0 km/h
941 30-05-2014 05:40:00 10.4 C 7.9 g/m*3 10.4 C 3.2 km/h
942 30-05-2014 05:45:00 10.3 C 7.95 g/m*3 10.3 C 0 km/h
943 30-05-2014 05:50:00 10.3 C 8.04 g/m*3 10.3 C 0 km/h
944 30-05-2014 05:55:00 10.3 C 7.95 g/m*3 10.3 C 1.6 km/h
945 30-05-2014 06:00:00 10.3 C 7.95 g/m*3 10.3 C 1.6 km/h
946 30-05-2014 06:05:00 10.3 C 7.95 g/m*3 10.3 C 0 km/h
947 30-05-2014 06:10:00 10.3 C 7.95 g/m*3 10.3 C 1.6 km/h
948 30-05-2014 06:15:00 10.3 C 7.95 g/m*3 10.3 C 3.2 km/h
949 30-05-2014 06:20:00 10.3 C 7.95 g/m*3 10.3 C 3.2 km/h
950 30-05-2014 06:25:00 10.3 C 7.85 g/m*3 10.3 C 3.2 km/h
Sensor: Nr:Datum:Temp:Abs-Feuchte:Windchill:Wind:
Aussen-T/F 951 30-05-2014 06:30:00 10.4 C 7.9 g/m*3 10.4 C 3.2 km/h
952 30-05-2014 06:35:00 10.4 C 7.9 g/m*3 10.4 C 4.8 km/h
953 30-05-2014 06:40:00 10.4 C 7.81 g/m*3 10.4 C 4.8 km/h
954 30-05-2014 06:45:00 10.4 C 7.81 g/m*3 9.83 C 6.4 km/h
955 30-05-2014 06:50:00 10.4 C 7.71 g/m*3 9.83 C 6.4 km/h
956 30-05-2014 06:55:00 10.5 C 7.76 g/m*3 10.5 C 3.2 km/h
957 30-05-2014 07:00:00 10.5 C 7.76 g/m*3 10.5 C 1.6 km/h
958 30-05-2014 07:05:00 10.5 C 7.86 g/m*3 10.5 C 1.6 km/h
959 30-05-2014 07:10:00 10.6 C 7.81 g/m*3 10.6 C 1.6 km/h
960 30-05-2014 07:15:00 10.6 C 7.71 g/m*3 10.6 C 3.2 km/h
961 30-05-2014 07:20:00 10.6 C 7.61 g/m*3 10.6 C 4.8 km/h
962 30-05-2014 07:25:00 10.6 C 7.71 g/m*3 10.6 C 1.6 km/h
963 30-05-2014 07:30:00 10.7 C 7.66 g/m*3 10.7 C 1.6 km/h
964 30-05-2014 07:35:00 10.7 C 7.66 g/m*3 9.52 C 9.7 km/h
965 30-05-2014 07:40:00 10.8 C 7.61 g/m*3 10.29 C 6.4 km/h
966 30-05-2014 07:45:00 10.8 C 7.61 g/m*3 10.8 C 4.8 km/h
967 30-05-2014 07:50:00 10.9 C 7.66 g/m*3 10.9 C 3.2 km/h
968 30-05-2014 07:55:00 11 C 7.71 g/m*3 10.16 C 8.1 km/h
969 30-05-2014 08:00:00 11.2 C 7.7 g/m*3 11.2 C 4.8 km/h
970 30-05-2014 08:05:00 11.3 C 7.75 g/m*3 11.3 C 4.8 km/h
971 30-05-2014 08:10:00 11.4 C 7.8 g/m*3 11.4 C 4.8 km/h
972 30-05-2014 08:15:00 11.7 C 7.74 g/m*3 11.7 C 6.4 km/h
973 30-05-2014 08:20:00 11.9 C 7.84 g/m*3 11.9 C 9.7 km/h
974 30-05-2014 08:25:00 12 C 7.67 g/m*3 12 C 8.1 km/h
975 30-05-2014 08:30:00 12.1 C 7.72 g/m*3 12.1 C 8.1 km/h
Sensor: Nr:Datum:Temp:Abs-Feuchte:Windchill:Wind:
Aussen-T/F 976 30-05-2014 08:35:00 12.1 C 7.61 g/m*3 12.1 C 11.3 km/h
977 30-05-2014 08:40:00 12 C 7.46 g/m*3 12 C 4.8 km/h
978 30-05-2014 08:45:00 12.1 C 7.51 g/m*3 12.1 C 4.8 km/h
979 30-05-2014 08:50:00 12.2 C 7.45 g/m*3 12.2 C 6.4 km/h
980 30-05-2014 08:55:00 12.4 C 7.43 g/m*3 12.4 C 8.1 km/h
981 30-05-2014 09:00:00 12.5 C 7.37 g/m*3 12.5 C 8.1 km/h
982 30-05-2014 09:05:00 12.7 C 7.24 g/m*3 12.7 C 11.3 km/h
983 30-05-2014 09:10:00 12.7 C 7.35 g/m*3 12.7 C 12.9 km/h
984 30-05-2014 09:15:00 12.7 C 7.35 g/m*3 12.7 C 8.1 km/h
985 30-05-2014 09:20:00 12.7 C 7.46 g/m*3 12.7 C 11.3 km/h
986 30-05-2014 09:25:00 12.6 C 7.3 g/m*3 12.6 C 8.1 km/h
987 30-05-2014 09:30:00 12.5 C 7.26 g/m*3 12.5 C 9.7 km/h
988 30-05-2014 09:35:00 12.4 C 7.21 g/m*3 12.4 C 3.2 km/h
989 30-05-2014 09:40:00 12.3 C 7.38 g/m*3 12.3 C 6.4 km/h
990 30-05-2014 09:45:00 12.3 C 7.38 g/m*3 12.3 C 11.3 km/h
991 30-05-2014 09:50:00 12.5 C 7.37 g/m*3 12.5 C 9.7 km/h
992 30-05-2014 09:55:00 12.7 C 7.46 g/m*3 12.7 C 8.1 km/h
993 30-05-2014 10:00:00 12.9 C 7.44 g/m*3 12.9 C 9.7 km/h
994 30-05-2014 10:05:00 13.3 C 7.63 g/m*3 13.3 C 12.9 km/h
995 30-05-2014 10:10:00 13.7 C 7.82 g/m*3 13.7 C 11.3 km/h
996 30-05-2014 10:15:00 14 C 7.84 g/m*3 14 C 12.9 km/h
997 30-05-2014 10:20:00 14.3 C 7.86 g/m*3 14.3 C 12.9 km/h
998 30-05-2014 10:25:00 14.4 C 7.66 g/m*3 14.4 C 11.3 km/h
999 30-05-2014 10:30:00 14.6 C 8.01 g/m*3 14.6 C 9.7 km/h
1000 30-05-2014 10:35:00 14.7 C 8.18 g/m*3 14.7 C 12.9 km/h
Sensor: Nr:Datum:Temp:Abs-Feuchte:Windchill:Wind:
Aussen-T/F 1001 30-05-2014 10:40:00 14.9 C 8.03 g/m*3 14.9 C 11.3 km/h
1002 30-05-2014 10:45:00 15.2 C 8.05 g/m*3 15.2 C 9.7 km/h
1003 30-05-2014 10:50:00 15.2 C 8.05 g/m*3 15.2 C 11.3 km/h
1004 30-05-2014 10:55:00 14.9 C 7.9 g/m*3 14.9 C 4.8 km/h
1005 30-05-2014 11:00:00 14.7 C 7.81 g/m*3 14.7 C 6.4 km/h
1006 30-05-2014 11:05:00 14.5 C 7.71 g/m*3 14.5 C 8.1 km/h
1007 30-05-2014 11:10:00 14.5 C 8.08 g/m*3 14.5 C 8.1 km/h
1008 30-05-2014 11:15:00 14.6 C 8.13 g/m*3 14.6 C 11.3 km/h
1009 30-05-2014 11:20:00 14.5 C 7.84 g/m*3 14.5 C 8.1 km/h
1010 30-05-2014 11:25:00 14.6 C 7.88 g/m*3 14.6 C 8.1 km/h
1011 30-05-2014 11:30:00 14.6 C 7.76 g/m*3 14.6 C 9.7 km/h
1012 30-05-2014 11:35:00 14.4 C 7.42 g/m*3 14.4 C 8.1 km/h
1013 30-05-2014 11:40:00 14.3 C 7.74 g/m*3 14.3 C 11.3 km/h
1014 30-05-2014 11:45:00 14.6 C 8.13 g/m*3 14.6 C 12.9 km/h
1015 30-05-2014 11:50:00 15.2 C 8.31 g/m*3 15.2 C 9.7 km/h
1016 30-05-2014 11:55:00 15.7 C 8.3 g/m*3 15.7 C 11.3 km/h
1017 30-05-2014 12:00:00 16.1 C 7.81 g/m*3 16.1 C 11.3 km/h
1018 30-05-2014 12:05:00 16 C 7.9 g/m*3 16 C 8.1 km/h
1019 30-05-2014 12:10:00 15.6 C 7.45 g/m*3 15.6 C 11.3 km/h
1020 30-05-2014 12:15:00 15.2 C 7.53 g/m*3 15.2 C 12.9 km/h
1021 30-05-2014 12:20:00 15.2 C 7.53 g/m*3 15.2 C 9.7 km/h
1022 30-05-2014 12:25:00 15.2 C 7.66 g/m*3 15.2 C 6.4 km/h
1023 30-05-2014 12:30:00 15.2 C 7.79 g/m*3 15.2 C 9.7 km/h
1024 30-05-2014 12:35:00 15.4 C 7.75 g/m*3 15.4 C 9.7 km/h
1025 30-05-2014 12:40:00 15.9 C 8.8 g/m*3 15.9 C 12.9 km/h
Sensor: Nr:Datum:Temp:Abs-Feuchte:Windchill:Wind:
Aussen-T/F 1026 30-05-2014 12:45:00 16.4 C 8.1 g/m*3 16.4 C 8.1 km/h
1027 30-05-2014 12:50:00 16.7 C 7.67 g/m*3 16.7 C 11.3 km/h
1028 30-05-2014 12:55:00 16.7 C 7.82 g/m*3 16.7 C 9.7 km/h
1029 30-05-2014 13:00:00 16.8 C 8.44 g/m*3 16.8 C 11.3 km/h
1030 30-05-2014 13:05:00 16.9 C 7.77 g/m*3 16.9 C 14.5 km/h
1031 30-05-2014 13:10:00 17.1 C 8.44 g/m*3 17.1 C 14.5 km/h
1032 30-05-2014 13:15:00 17.1 C 9.17 g/m*3 17.1 C 11.3 km/h
1033 30-05-2014 13:20:00 17.3 C 7.96 g/m*3 17.3 C 17.7 km/h
1034 30-05-2014 13:25:00 17.1 C 8.15 g/m*3 17.1 C 12.9 km/h
1035 30-05-2014 13:30:00 17.1 C 8.3 g/m*3 17.1 C 8.1 km/h
1036 30-05-2014 13:35:00 17.1 C 8.15 g/m*3 17.1 C 11.3 km/h
1037 30-05-2014 13:40:00 17.2 C 8.64 g/m*3 17.2 C 12.9 km/h
1038 30-05-2014 13:45:00 17.1 C 8.01 g/m*3 17.1 C 11.3 km/h
1039 30-05-2014 13:50:00 17.3 C 8.54 g/m*3 17.3 C 11.3 km/h
1040 30-05-2014 13:55:00 17.3 C 7.81 g/m*3 17.3 C 8.1 km/h
1041 30-05-2014 14:00:00 17.6 C 8.7 g/m*3 17.6 C 8.1 km/h
1042 30-05-2014 14:05:00 17.8 C 8.04 g/m*3 17.8 C 11.3 km/h
1043 30-05-2014 14:10:00 18 C 8.6 g/m*3 18 C 14.5 km/h
1044 30-05-2014 14:15:00 17.8 C 8.04 g/m*3 17.8 C 11.3 km/h
1045 30-05-2014 14:20:00 17.3 C 7.81 g/m*3 17.3 C 8.1 km/h
1046 30-05-2014 14:25:00 17 C 7.67 g/m*3 17 C 8.1 km/h
1047 30-05-2014 14:30:00 17.1 C 8.3 g/m*3 17.1 C 9.7 km/h
1048 30-05-2014 14:35:00 17.2 C 7.61 g/m*3 17.2 C 6.4 km/h
1049 30-05-2014 14:40:00 17.2 C 7.47 g/m*3 17.2 C 14.5 km/h
1050 30-05-2014 14:45:00 17.6 C 7.8 g/m*3 17.6 C 12.9 km/h
Sensor: Nr:Datum:Temp:Abs-Feuchte:Windchill:Wind:
Aussen-T/F 1051 30-05-2014 14:50:00 17.2 C 7.91 g/m*3 17.2 C 14.5 km/h
1052 30-05-2014 14:55:00 16.8 C 7.72 g/m*3 16.8 C 11.3 km/h
1053 30-05-2014 15:00:00 16.6 C 7.63 g/m*3 16.6 C 9.7 km/h
1054 30-05-2014 15:05:00 16.4 C 7.54 g/m*3 16.4 C 17.7 km/h
1055 30-05-2014 15:10:00 16.1 C 7.54 g/m*3 16.1 C 8.1 km/h
1056 30-05-2014 15:15:00 16 C 7.77 g/m*3 16 C 11.3 km/h
1057 30-05-2014 15:20:00 16.4 C 8.23 g/m*3 16.4 C 11.3 km/h
1058 30-05-2014 15:25:00 16.7 C 7.96 g/m*3 16.7 C 14.5 km/h
1059 30-05-2014 15:30:00 16.7 C 7.96 g/m*3 16.7 C 9.7 km/h
1060 30-05-2014 15:35:00 16.9 C 7.91 g/m*3 16.9 C 11.3 km/h
1061 30-05-2014 15:40:00 17.2 C 8.05 g/m*3 17.2 C 8.1 km/h
1062 30-05-2014 15:45:00 17.3 C 8.25 g/m*3 17.3 C 14.5 km/h
1063 30-05-2014 15:50:00 17.9 C 8.24 g/m*3 17.9 C 14.5 km/h
1064 30-05-2014 15:55:00 17.8 C 8.2 g/m*3 17.8 C 8.1 km/h
1065 30-05-2014 16:00:00 17.3 C 7.96 g/m*3 17.3 C 12.9 km/h
1066 30-05-2014 16:05:00 17 C 8.1 g/m*3 17 C 11.3 km/h
1067 30-05-2014 16:10:00 16.8 C 8.01 g/m*3 16.8 C 8.1 km/h
1068 30-05-2014 16:15:00 16.6 C 8.05 g/m*3 16.6 C 6.4 km/h
1069 30-05-2014 16:20:00 16.5 C 7.72 g/m*3 16.5 C 6.4 km/h
1070 30-05-2014 16:25:00 16.3 C 8.19 g/m*3 16.3 C 6.4 km/h
1071 30-05-2014 16:30:00 16.6 C 8.76 g/m*3 16.6 C 8.1 km/h
1072 30-05-2014 16:35:00 17.3 C 8.4 g/m*3 17.3 C 8.1 km/h
1073 30-05-2014 16:40:00 17.9 C 8.24 g/m*3 17.9 C 11.3 km/h
1074 30-05-2014 16:45:00 18 C 8.29 g/m*3 18 C 11.3 km/h
1075 30-05-2014 16:50:00 17.6 C 8.1 g/m*3 17.6 C 9.7 km/h
Sensor: Nr:Datum:Temp:Abs-Feuchte:Windchill:Wind:
Aussen-T/F 1076 30-05-2014 16:55:00 17.2 C 7.91 g/m*3 17.2 C 4.8 km/h
1077 30-05-2014 17:00:00 16.7 C 7.82 g/m*3 16.7 C 9.7 km/h
1078 30-05-2014 17:05:00 16.4 C 7.96 g/m*3 16.4 C 9.7 km/h
1079 30-05-2014 17:10:00 16.2 C 7.86 g/m*3 16.2 C 8.1 km/h
1080 30-05-2014 17:15:00 16.2 C 8 g/m*3 16.2 C 11.3 km/h
1081 30-05-2014 17:20:00 16.1 C 7.95 g/m*3 16.1 C 9.7 km/h
1082 30-05-2014 17:25:00 16.1 C 8.36 g/m*3 16.1 C 12.9 km/h
1083 30-05-2014 17:30:00 16.1 C 8.09 g/m*3 16.1 C 8.1 km/h
1084 30-05-2014 17:35:00 15.9 C 7.99 g/m*3 15.9 C 11.3 km/h
1085 30-05-2014 17:40:00 15.7 C 7.76 g/m*3 15.7 C 12.9 km/h
1086 30-05-2014 17:45:00 15.9 C 8.4 g/m*3 15.9 C 12.9 km/h
1087 30-05-2014 17:50:00 16.3 C 7.77 g/m*3 16.3 C 12.9 km/h
1088 30-05-2014 17:55:00 16.4 C 8.1 g/m*3 16.4 C 14.5 km/h
1089 30-05-2014 18:00:00 16.7 C 7.96 g/m*3 16.7 C 11.3 km/h
1090 30-05-2014 18:05:00 16.8 C 7.86 g/m*3 16.8 C 11.3 km/h
1091 30-05-2014 18:10:00 16.9 C 8.05 g/m*3 16.9 C 9.7 km/h
1092 30-05-2014 18:15:00 16.8 C 8.01 g/m*3 16.8 C 11.3 km/h
1093 30-05-2014 18:20:00 16.6 C 7.77 g/m*3 16.6 C 12.9 km/h
1094 30-05-2014 18:25:00 16.4 C 7.82 g/m*3 16.4 C 8.1 km/h
1095 30-05-2014 18:30:00 16.1 C 7.68 g/m*3 16.1 C 4.8 km/h
1096 30-05-2014 18:35:00 15.9 C 7.85 g/m*3 15.9 C 8.1 km/h
1097 30-05-2014 18:40:00 16 C 8.04 g/m*3 16 C 8.1 km/h
1098 30-05-2014 18:45:00 16.3 C 8.05 g/m*3 16.3 C 11.3 km/h
1099 30-05-2014 18:50:00 16.7 C 8.24 g/m*3 16.7 C 9.7 km/h
1100 30-05-2014 18:55:00 17 C 8.25 g/m*3 17 C 11.3 km/h
Sensor: Nr:Datum:Temp:Abs-Feuchte:Windchill:Wind:
Aussen-T/F 1101 30-05-2014 19:00:00 16.7 C 7.96 g/m*3 16.7 C 14.5 km/h
1102 30-05-2014 19:05:00 16.2 C 7.86 g/m*3 16.2 C 6.4 km/h
1103 30-05-2014 19:10:00 15.6 C 7.58 g/m*3 15.6 C 12.9 km/h
1104 30-05-2014 19:15:00 15.3 C 7.84 g/m*3 15.3 C 8.1 km/h
1105 30-05-2014 19:20:00 15.1 C 7.74 g/m*3 15.1 C 9.7 km/h
1106 30-05-2014 19:25:00 15 C 7.82 g/m*3 15 C 9.7 km/h
1107 30-05-2014 19:30:00 15.1 C 7.87 g/m*3 15.1 C 6.4 km/h
1108 30-05-2014 19:35:00 15.1 C 7.74 g/m*3 15.1 C 8.1 km/h
1109 30-05-2014 19:40:00 15 C 7.69 g/m*3 15 C 8.1 km/h
1110 30-05-2014 19:45:00 14.9 C 7.65 g/m*3 14.9 C 9.7 km/h
1111 30-05-2014 19:50:00 14.8 C 7.73 g/m*3 14.8 C 8.1 km/h
1112 30-05-2014 19:55:00 14.7 C 7.55 g/m*3 14.7 C 9.7 km/h
1113 30-05-2014 20:00:00 14.6 C 7.63 g/m*3 14.6 C 3.2 km/h
1114 30-05-2014 20:05:00 14.6 C 7.63 g/m*3 14.6 C 6.4 km/h
1115 30-05-2014 20:10:00 14.6 C 7.51 g/m*3 14.6 C 3.2 km/h
1116 30-05-2014 20:15:00 14.6 C 7.76 g/m*3 14.6 C 1.6 km/h
1117 30-05-2014 20:20:00 14.4 C 7.29 g/m*3 14.4 C 3.2 km/h
1118 30-05-2014 20:25:00 14.4 C 7.42 g/m*3 14.4 C 0 km/h
1119 30-05-2014 20:30:00 14.3 C 7.25 g/m*3 14.3 C 1.6 km/h
1120 30-05-2014 20:35:00 14.2 C 8.06 g/m*3 14.2 C 0 km/h
1121 30-05-2014 20:40:00 14.1 C 7.4 g/m*3 14.1 C 0 km/h
1122 30-05-2014 20:45:00 14 C 7.72 g/m*3 14 C 0 km/h
1123 30-05-2014 20:50:00 13.8 C 8.22 g/m*3 13.8 C 0 km/h
1124 30-05-2014 20:55:00 13.6 C 8.47 g/m*3 13.6 C 0 km/h
1125 30-05-2014 21:00:00 13.2 C 8.5 g/m*3 13.2 C 0 km/h
Sensor: Nr:Datum:Temp:Abs-Feuchte:Windchill:Wind:
Aussen-T/F 1126 30-05-2014 21:05:00 12.8 C 8.4 g/m*3 12.8 C 0 km/h
1127 30-05-2014 21:10:00 12.4 C 8.19 g/m*3 12.4 C 0 km/h
1128 30-05-2014 21:15:00 12.1 C 8.15 g/m*3 12.1 C 1.6 km/h
1129 30-05-2014 21:20:00 11.7 C 8.05 g/m*3 11.7 C 0 km/h
1130 30-05-2014 21:25:00 11.5 C 7.95 g/m*3 11.5 C 0 km/h
1131 30-05-2014 21:30:00 11.3 C 7.85 g/m*3 11.3 C 1.6 km/h
1132 30-05-2014 21:35:00 11.1 C 7.76 g/m*3 11.1 C 1.6 km/h
1133 30-05-2014 21:40:00 10.9 C 7.66 g/m*3 10.9 C 0 km/h
1134 30-05-2014 21:45:00 10.7 C 7.66 g/m*3 10.7 C 0 km/h
1135 30-05-2014 21:50:00 10.6 C 7.52 g/m*3 10.6 C 1.6 km/h
1136 30-05-2014 21:55:00 10.5 C 7.57 g/m*3 10.5 C 0 km/h
1137 30-05-2014 22:00:00 10.4 C 7.52 g/m*3 10.4 C 0 km/h
1138 30-05-2014 22:05:00 10.3 C 7.57 g/m*3 10.3 C 1.6 km/h
1139 30-05-2014 22:10:00 10.2 C 7.61 g/m*3 10.2 C 0 km/h
1140 30-05-2014 22:15:00 10.1 C 7.66 g/m*3 10.1 C 0 km/h
1141 30-05-2014 22:20:00 10.1 C 7.66 g/m*3 10.1 C 0 km/h
1142 30-05-2014 22:25:00 10 C 7.61 g/m*3 10 C 0 km/h
1143 30-05-2014 22:30:00 9.9 C 7.56 g/m*3 9.9 C 0 km/h
1144 30-05-2014 22:35:00 9.8 C 7.61 g/m*3 9.8 C 0 km/h
1145 30-05-2014 22:40:00 9.7 C 7.56 g/m*3 9.7 C 0 km/h
1146 30-05-2014 22:45:00 9.6 C 7.69 g/m*3 9.6 C 0 km/h
1147 30-05-2014 22:50:00 9.5 C 7.65 g/m*3 9.5 C 0 km/h
1148 30-05-2014 22:55:00 9.4 C 7.6 g/m*3 9.4 C 0 km/h
1149 30-05-2014 23:00:00 9.4 C 7.6 g/m*3 9.4 C 0 km/h
1150 30-05-2014 23:05:00 9.3 C 7.55 g/m*3 9.3 C 0 km/h
Sensor: Nr:Datum:Temp:Abs-Feuchte:Windchill:Wind:
Aussen-T/F 1151 30-05-2014 23:10:00 9.2 C 7.5 g/m*3 9.2 C 0 km/h
1152 30-05-2014 23:15:00 9.1 C 7.54 g/m*3 9.1 C 0 km/h
1153 30-05-2014 23:20:00 8.9 C 7.45 g/m*3 8.9 C 0 km/h
1154 30-05-2014 23:25:00 8.8 C 7.4 g/m*3 8.8 C 0 km/h
1155 30-05-2014 23:30:00 8.7 C 7.44 g/m*3 8.7 C 0 km/h
1156 30-05-2014 23:35:00 8.6 C 7.39 g/m*3 8.6 C 0 km/h
1157 30-05-2014 23:40:00 8.5 C 7.34 g/m*3 8.5 C 0 km/h
1158 30-05-2014 23:45:00 8.4 C 7.38 g/m*3 8.4 C 0 km/h
1159 30-05-2014 23:50:00 8.4 C 7.38 g/m*3 8.4 C 0 km/h
1160 30-05-2014 23:55:00 8.3 C 7.33 g/m*3 8.3 C 0 km/h
1161 31-05-2014 00:00:00 8.3 C 7.33 g/m*3 8.3 C 0 km/h
1162 31-05-2014 00:05:00 8.2 C 7.2 g/m*3 8.2 C 0 km/h
1163 31-05-2014 00:10:00 8.2 C 7.29 g/m*3 8.2 C 0 km/h
1164 31-05-2014 00:15:00 8.2 C 7.29 g/m*3 8.2 C 0 km/h
1165 31-05-2014 00:20:00 8.1 C 7.24 g/m*3 8.1 C 0 km/h
1166 31-05-2014 00:25:00 8 C 7.19 g/m*3 8 C 0 km/h
1167 31-05-2014 00:30:00 8 C 7.28 g/m*3 8 C 0 km/h
1168 31-05-2014 00:35:00 7.9 C 7.23 g/m*3 7.9 C 0 km/h
1169 31-05-2014 00:40:00 7.8 C 7.18 g/m*3 7.8 C 0 km/h
1170 31-05-2014 00:45:00 7.8 C 7.26 g/m*3 7.8 C 0 km/h
1171 31-05-2014 00:50:00 7.7 C 7.22 g/m*3 7.7 C 0 km/h
1172 31-05-2014 00:55:00 7.7 C 7.22 g/m*3 7.7 C 0 km/h
1173 31-05-2014 01:00:00 7.7 C 7.22 g/m*3 7.7 C 0 km/h
1174 31-05-2014 01:05:00 7.6 C 7.25 g/m*3 7.6 C 0 km/h
1175 31-05-2014 01:10:00 7.6 C 7.25 g/m*3 7.6 C 0 km/h
Sensor: Nr:Datum:Temp:Abs-Feuchte:Windchill:Wind:
Aussen-T/F 1176 31-05-2014 01:15:00 7.5 C 7.2 g/m*3 7.5 C 0 km/h
1177 31-05-2014 01:20:00 7.5 C 7.2 g/m*3 7.5 C 0 km/h
1178 31-05-2014 01:25:00 7.4 C 7.16 g/m*3 7.4 C 0 km/h
1179 31-05-2014 01:30:00 7.4 C 7.16 g/m*3 7.4 C 0 km/h
1180 31-05-2014 01:35:00 7.3 C 7.19 g/m*3 7.3 C 0 km/h
1181 31-05-2014 01:40:00 7.3 C 7.11 g/m*3 7.3 C 0 km/h
1182 31-05-2014 01:45:00 7.3 C 7.19 g/m*3 7.3 C 0 km/h
1183 31-05-2014 01:50:00 7.3 C 7.19 g/m*3 7.3 C 0 km/h
1184 31-05-2014 01:55:00 7.2 C 7.14 g/m*3 7.2 C 0 km/h
1185 31-05-2014 02:00:00 7.2 C 7.14 g/m*3 7.2 C 0 km/h
1186 31-05-2014 02:05:00 7.2 C 7.14 g/m*3 7.2 C 0 km/h
1187 31-05-2014 02:10:00 7.1 C 7.18 g/m*3 7.1 C 0 km/h
1188 31-05-2014 02:15:00 7.1 C 7.18 g/m*3 7.1 C 0 km/h
1189 31-05-2014 02:20:00 7 C 7.13 g/m*3 7 C 0 km/h
1190 31-05-2014 02:25:00 6.9 C 7.08 g/m*3 6.9 C 0 km/h
1191 31-05-2014 02:30:00 6.9 C 7.08 g/m*3 6.9 C 0 km/h
1192 31-05-2014 02:35:00 6.8 C 7.11 g/m*3 6.8 C 0 km/h
1193 31-05-2014 02:40:00 6.8 C 7.11 g/m*3 6.8 C 0 km/h
1194 31-05-2014 02:45:00 6.7 C 7.07 g/m*3 6.7 C 1.6 km/h
1195 31-05-2014 02:50:00 6.7 C 7.07 g/m*3 6.7 C 1.6 km/h
1196 31-05-2014 02:55:00 6.7 C 7.07 g/m*3 6.7 C 0 km/h
1197 31-05-2014 03:00:00 6.7 C 7.07 g/m*3 6.7 C 0 km/h
1198 31-05-2014 03:05:00 6.6 C 7.02 g/m*3 6.6 C 0 km/h
1199 31-05-2014 03:10:00 6.6 C 7.02 g/m*3 6.6 C 0 km/h
1200 31-05-2014 03:15:00 6.6 C 7.02 g/m*3 6.6 C 0 km/h
Sensor: Nr:Datum:Temp:Abs-Feuchte:Windchill:Wind:
Aussen-T/F 1201 31-05-2014 03:20:00 6.5 C 6.97 g/m*3 6.5 C 0 km/h
1202 31-05-2014 03:25:00 6.4 C 7 g/m*3 6.4 C 0 km/h
1203 31-05-2014 03:30:00 6.4 C 7 g/m*3 6.4 C 0 km/h
1204 31-05-2014 03:35:00 6.4 C 7 g/m*3 6.4 C 0 km/h
1205 31-05-2014 03:40:00 6.3 C 6.96 g/m*3 6.3 C 0 km/h
1206 31-05-2014 03:45:00 6.3 C 6.96 g/m*3 6.3 C 0 km/h
1207 31-05-2014 03:50:00 6.3 C 6.96 g/m*3 6.3 C 0 km/h
1208 31-05-2014 03:55:00 6.2 C 6.91 g/m*3 6.2 C 0 km/h
1209 31-05-2014 04:00:00 6.2 C 6.91 g/m*3 6.2 C 1.6 km/h
1210 31-05-2014 04:05:00 6.1 C 6.87 g/m*3 6.1 C 0 km/h
1211 31-05-2014 04:10:00 6.1 C 6.87 g/m*3 6.1 C 0 km/h
1212 31-05-2014 04:15:00 6.1 C 6.87 g/m*3 6.1 C 0 km/h
1213 31-05-2014 04:20:00 6 C 6.82 g/m*3 6 C 0 km/h
1214 31-05-2014 04:25:00 6 C 6.82 g/m*3 6 C 0 km/h
1215 31-05-2014 04:30:00 6 C 6.9 g/m*3 6 C 0 km/h
1216 31-05-2014 04:35:00 6 C 6.9 g/m*3 6 C 0 km/h
1217 31-05-2014 04:40:00 5.9 C 6.85 g/m*3 5.9 C 0 km/h
1218 31-05-2014 04:45:00 5.9 C 6.85 g/m*3 5.9 C 0 km/h
1219 31-05-2014 04:50:00 5.8 C 6.81 g/m*3 5.8 C 0 km/h
1220 31-05-2014 04:55:00 5.8 C 6.81 g/m*3 5.8 C 0 km/h
1221 31-05-2014 05:00:00 5.8 C 6.81 g/m*3 5.8 C 1.6 km/h
1222 31-05-2014 05:05:00 5.8 C 6.81 g/m*3 5.8 C 0 km/h
1223 31-05-2014 05:10:00 5.7 C 6.76 g/m*3 5.7 C 0 km/h
1224 31-05-2014 05:15:00 5.7 C 6.76 g/m*3 5.7 C 0 km/h
1225 31-05-2014 05:20:00 5.6 C 6.72 g/m*3 5.6 C 0 km/h
Sensor: Nr:Datum:Temp:Abs-Feuchte:Windchill:Wind:
Aussen-T/F 1226 31-05-2014 05:25:00 5.5 C 6.67 g/m*3 5.5 C 0 km/h
1227 31-05-2014 05:30:00 5.4 C 6.63 g/m*3 5.4 C 0 km/h
1228 31-05-2014 05:35:00 5.4 C 6.63 g/m*3 5.4 C 0 km/h
1229 31-05-2014 05:40:00 5.4 C 6.63 g/m*3 5.4 C 0 km/h
1230 31-05-2014 05:45:00 5.4 C 6.63 g/m*3 5.4 C 0 km/h
1231 31-05-2014 05:50:00 5.4 C 6.63 g/m*3 5.4 C 0 km/h
1232 31-05-2014 05:55:00 5.3 C 6.58 g/m*3 5.3 C 0 km/h
1233 31-05-2014 06:00:00 5.3 C 6.58 g/m*3 5.3 C 0 km/h
1234 31-05-2014 06:05:00 5.3 C 6.58 g/m*3 5.3 C 0 km/h
1235 31-05-2014 06:10:00 5.4 C 6.63 g/m*3 5.4 C 0 km/h
1236 31-05-2014 06:15:00 5.4 C 6.63 g/m*3 5.4 C 1.6 km/h
1237 31-05-2014 06:20:00 5.5 C 6.74 g/m*3 5.5 C 3.2 km/h
1238 31-05-2014 06:25:00 5.5 C 6.74 g/m*3 5.5 C 4.8 km/h
1239 31-05-2014 06:30:00 5.6 C 6.79 g/m*3 5.6 C 3.2 km/h
1240 31-05-2014 06:35:00 5.6 C 6.79 g/m*3 5.6 C 4.8 km/h
1241 31-05-2014 06:40:00 5.7 C 6.83 g/m*3 5.7 C 3.2 km/h
1242 31-05-2014 06:45:00 5.7 C 6.83 g/m*3 5.7 C 3.2 km/h
1243 31-05-2014 06:50:00 5.7 C 6.83 g/m*3 5.7 C 3.2 km/h
1244 31-05-2014 06:55:00 5.7 C 6.83 g/m*3 5.7 C 3.2 km/h
1245 31-05-2014 07:00:00 5.8 C 6.88 g/m*3 5.8 C 4.8 km/h
1246 31-05-2014 07:05:00 5.8 C 6.88 g/m*3 5.8 C 3.2 km/h
1247 31-05-2014 07:10:00 5.8 C 6.88 g/m*3 5.8 C 3.2 km/h
1248 31-05-2014 07:15:00 5.9 C 6.92 g/m*3 5.9 C 3.2 km/h
1249 31-05-2014 07:20:00 6 C 6.97 g/m*3 6 C 1.6 km/h
1250 31-05-2014 07:25:00 6.1 C 7.01 g/m*3 6.1 C 3.2 km/h
Sensor: Nr:Datum:Temp:Abs-Feuchte:Windchill:Wind:
Aussen-T/F 1251 31-05-2014 07:30:00 6.1 C 7.01 g/m*3 6.1 C 3.2 km/h
1252 31-05-2014 07:35:00 6.3 C 7.11 g/m*3 6.3 C 0 km/h
1253 31-05-2014 07:40:00 6.4 C 7.15 g/m*3 6.4 C 1.6 km/h
1254 31-05-2014 07:45:00 6.6 C 7.25 g/m*3 6.6 C 1.6 km/h
1255 31-05-2014 07:50:00 6.7 C 7.29 g/m*3 6.7 C 0 km/h
1256 31-05-2014 07:55:00 7 C 7.44 g/m*3 7 C 0 km/h
1257 31-05-2014 08:00:00 7.3 C 7.58 g/m*3 7.3 C 0 km/h
1258 31-05-2014 08:05:00 7.5 C 7.6 g/m*3 7.5 C 0 km/h
1259 31-05-2014 08:10:00 7.8 C 7.67 g/m*3 7.8 C 0 km/h
1260 31-05-2014 08:15:00 8.1 C 7.82 g/m*3 8.1 C 0 km/h
1261 31-05-2014 08:20:00 8.4 C 7.8 g/m*3 8.4 C 0 km/h
1262 31-05-2014 08:25:00 8.6 C 7.91 g/m*3 8.6 C 0 km/h
1263 31-05-2014 08:30:00 8.8 C 7.83 g/m*3 8.8 C 0 km/h
1264 31-05-2014 08:35:00 8.9 C 7.88 g/m*3 8.9 C 0 km/h
1265 31-05-2014 08:40:00 9.1 C 7.99 g/m*3 9.1 C 0 km/h
1266 31-05-2014 08:45:00 9.3 C 8.09 g/m*3 9.3 C 0 km/h
1267 31-05-2014 08:50:00 9.5 C 8.19 g/m*3 9.5 C 0 km/h
1268 31-05-2014 08:55:00 9.8 C 8.26 g/m*3 9.8 C 0 km/h
1269 31-05-2014 09:00:00 10.1 C 8.32 g/m*3 10.1 C 0 km/h
1270 31-05-2014 09:05:00 10.3 C 8.33 g/m*3 10.3 C 1.6 km/h
1271 31-05-2014 09:10:00 10.5 C 8.44 g/m*3 10.5 C 0 km/h
1272 31-05-2014 09:15:00 10.3 C 8.33 g/m*3 10.3 C 0 km/h
1273 31-05-2014 09:20:00 10.2 C 8.37 g/m*3 10.2 C 0 km/h
1274 31-05-2014 09:25:00 10.2 C 8.47 g/m*3 10.2 C 0 km/h
1275 31-05-2014 09:30:00 10.2 C 8.56 g/m*3 10.2 C 0 km/h
Sensor: Nr:Datum:Temp:Abs-Feuchte:Windchill:Wind:
Aussen-T/F 1276 31-05-2014 09:35:00 10.2 C 8.56 g/m*3 10.2 C 0 km/h
1277 31-05-2014 09:40:00 10.3 C 8.62 g/m*3 10.3 C 0 km/h
1278 31-05-2014 09:45:00 10.4 C 8.58 g/m*3 10.4 C 0 km/h
1279 31-05-2014 09:50:00 10.7 C 8.74 g/m*3 10.7 C 0 km/h
1280 31-05-2014 09:55:00 11.2 C 8.92 g/m*3 11.2 C 1.6 km/h
1281 31-05-2014 10:00:00 11.9 C 9.11 g/m*3 11.9 C 0 km/h
1282 31-05-2014 10:05:00 12.5 C 9.24 g/m*3 12.5 C 0 km/h
1283 31-05-2014 10:10:00 12.9 C 9.24 g/m*3 12.9 C 0 km/h
1284 31-05-2014 10:15:00 13.2 C 9.42 g/m*3 13.2 C 0 km/h
1285 31-05-2014 10:20:00 13.7 C 9.59 g/m*3 13.7 C 0 km/h
1286 31-05-2014 10:25:00 13.9 C 9.59 g/m*3 13.9 C 0 km/h
1287 31-05-2014 10:30:00 14.1 C 9.95 g/m*3 14.1 C 0 km/h
1288 31-05-2014 10:35:00 14.2 C 9.77 g/m*3 14.2 C 1.6 km/h
1289 31-05-2014 10:40:00 14.5 C 9.58 g/m*3 14.5 C 0 km/h
1290 31-05-2014 10:45:00 14.8 C 9.37 g/m*3 14.8 C 1.6 km/h
1291 31-05-2014 10:50:00 15.3 C 9.92 g/m*3 15.3 C 0 km/h
1292 31-05-2014 10:55:00 15.6 C 10.24 g/m*3 15.6 C 0 km/h
1293 31-05-2014 11:00:00 15.9 C 9.34 g/m*3 15.9 C 1.6 km/h
1294 31-05-2014 11:05:00 16.3 C 9.71 g/m*3 16.3 C 4.8 km/h
1295 31-05-2014 11:10:00 16.9 C 10.07 g/m*3 16.9 C 6.4 km/h
1296 31-05-2014 11:15:00 17.3 C 10.16 g/m*3 17.3 C 4.8 km/h
1297 31-05-2014 11:20:00 17.6 C 9.9 g/m*3 17.6 C 3.2 km/h
1298 31-05-2014 11:25:00 17.6 C 10.05 g/m*3 17.6 C 1.6 km/h
1299 31-05-2014 11:30:00 17.7 C 9.66 g/m*3 17.7 C 6.4 km/h
1300 31-05-2014 11:35:00 17.9 C 10.54 g/m*3 17.9 C 1.6 km/h
Sensor: Nr:Datum:Temp:Abs-Feuchte:Windchill:Wind:
Aussen-T/F 1301 31-05-2014 11:40:00 18 C 10.44 g/m*3 18 C 3.2 km/h
1302 31-05-2014 11:45:00 18.3 C 9.69 g/m*3 18.3 C 3.2 km/h
1303 31-05-2014 11:50:00 18.7 C 9.45 g/m*3 18.7 C 8.1 km/h
1304 31-05-2014 11:55:00 18.8 C 9.82 g/m*3 18.8 C 4.8 km/h
1305 31-05-2014 12:00:00 19.2 C 9.56 g/m*3 19.2 C 8.1 km/h
1306 31-05-2014 12:05:00 19.6 C 9.62 g/m*3 19.6 C 4.8 km/h
1307 31-05-2014 12:10:00 19.7 C 8.83 g/m*3 19.7 C 9.7 km/h
1308 31-05-2014 12:15:00 19.6 C 9.12 g/m*3 19.6 C 8.1 km/h
1309 31-05-2014 12:20:00 19.3 C 8.79 g/m*3 19.3 C 3.2 km/h
1310 31-05-2014 12:25:00 18.9 C 8.91 g/m*3 18.9 C 8.1 km/h
1311 31-05-2014 12:30:00 18.8 C 8.54 g/m*3 18.8 C 6.4 km/h
1312 31-05-2014 12:35:00 18.8 C 8.54 g/m*3 18.8 C 4.8 km/h
1313 31-05-2014 12:40:00 18.9 C 8.75 g/m*3 18.9 C 9.7 km/h
1314 31-05-2014 12:45:00 18.7 C 8.81 g/m*3 18.7 C 8.1 km/h
1315 31-05-2014 12:50:00 18.6 C 8.59 g/m*3 18.6 C 8.1 km/h
1316 31-05-2014 12:55:00 18.8 C 9.02 g/m*3 18.8 C 9.7 km/h
1317 31-05-2014 13:00:00 19.2 C 9.07 g/m*3 19.2 C 6.4 km/h
1318 31-05-2014 13:05:00 19.4 C 8.84 g/m*3 19.4 C 9.7 km/h
1319 31-05-2014 13:10:00 19.4 C 8.51 g/m*3 19.4 C 8.1 km/h
1320 31-05-2014 13:15:00 19.4 C 8.84 g/m*3 19.4 C 4.8 km/h
1321 31-05-2014 13:20:00 19.7 C 8.49 g/m*3 19.7 C 4.8 km/h
1322 31-05-2014 13:25:00 19.9 C 8.59 g/m*3 19.9 C 3.2 km/h
1323 31-05-2014 13:30:00 20.2 C 9.09 g/m*3 20.2 C 4.8 km/h
1324 31-05-2014 13:35:00 20.4 C 9.38 g/m*3 20.4 C 6.4 km/h
1325 31-05-2014 13:40:00 20.7 C 9.36 g/m*3 20.7 C 9.7 km/h
Sensor: Nr:Datum:Temp:Abs-Feuchte:Windchill:Wind:
Aussen-T/F 1326 31-05-2014 13:45:00 20.8 C 8.51 g/m*3 20.8 C 6.4 km/h
1327 31-05-2014 13:50:00 21.1 C 9.4 g/m*3 21.1 C 6.4 km/h
1328 31-05-2014 13:55:00 20.8 C 7.97 g/m*3 20.8 C 3.2 km/h
1329 31-05-2014 14:00:00 20.5 C 8.19 g/m*3 20.5 C 6.4 km/h
1330 31-05-2014 14:05:00 20.1 C 8.17 g/m*3 20.1 C 9.7 km/h
1331 31-05-2014 14:10:00 19.8 C 8.37 g/m*3 19.8 C 6.4 km/h
1332 31-05-2014 14:15:00 19.6 C 8.27 g/m*3 19.6 C 6.4 km/h
1333 31-05-2014 14:20:00 19.4 C 8.34 g/m*3 19.4 C 6.4 km/h
1334 31-05-2014 14:25:00 19.3 C 8.29 g/m*3 19.3 C 3.2 km/h
1335 31-05-2014 14:30:00 19.3 C 8.63 g/m*3 19.3 C 3.2 km/h
1336 31-05-2014 14:35:00 19.3 C 8.13 g/m*3 19.3 C 3.2 km/h
1337 31-05-2014 14:40:00 19.3 C 7.8 g/m*3 19.3 C 4.8 km/h
1338 31-05-2014 14:45:00 19.7 C 8.49 g/m*3 19.7 C 6.4 km/h
1339 31-05-2014 14:50:00 20.4 C 8.67 g/m*3 20.4 C 4.8 km/h
1340 31-05-2014 14:55:00 21 C 8.24 g/m*3 21 C 6.4 km/h
1341 31-05-2014 15:00:00 21.3 C 8.02 g/m*3 21.3 C 4.8 km/h
1342 31-05-2014 15:05:00 21.1 C 7.92 g/m*3 21.1 C 4.8 km/h
1343 31-05-2014 15:10:00 20.8 C 8.15 g/m*3 20.8 C 3.2 km/h
1344 31-05-2014 15:15:00 20.6 C 8.23 g/m*3 20.6 C 4.8 km/h
1345 31-05-2014 15:20:00 20.5 C 8.19 g/m*3 20.5 C 6.4 km/h
1346 31-05-2014 15:25:00 20.3 C 8.27 g/m*3 20.3 C 6.4 km/h
1347 31-05-2014 15:30:00 20.2 C 9.27 g/m*3 20.2 C 4.8 km/h
1348 31-05-2014 15:35:00 19.7 C 10.19 g/m*3 19.7 C 0 km/h
1349 31-05-2014 15:40:00 19.7 C 10.02 g/m*3 19.7 C 0 km/h
1350 31-05-2014 15:45:00 20.3 C 8.62 g/m*3 20.3 C 1.6 km/h
Sensor: Nr:Datum:Temp:Abs-Feuchte:Windchill:Wind:
Aussen-T/F 1351 31-05-2014 15:50:00 20.7 C 7.56 g/m*3 20.7 C 4.8 km/h
1352 31-05-2014 15:55:00 20.6 C 10.2 g/m*3 20.6 C 4.8 km/h
1353 31-05-2014 16:00:00 20.3 C 8.09 g/m*3 20.3 C 8.1 km/h
1354 31-05-2014 16:05:00 20.3 C 8.44 g/m*3 20.3 C 1.6 km/h
1355 31-05-2014 16:10:00 20.3 C 8.62 g/m*3 20.3 C 6.4 km/h
1356 31-05-2014 16:15:00 20.3 C 9.5 g/m*3 20.3 C 4.8 km/h
1357 31-05-2014 16:20:00 19.7 C 9.68 g/m*3 19.7 C 1.6 km/h
1358 31-05-2014 16:25:00 19.2 C 9.89 g/m*3 19.2 C 3.2 km/h
1359 31-05-2014 16:30:00 18.9 C 8.42 g/m*3 18.9 C 4.8 km/h
1360 31-05-2014 16:35:00 19.1 C 8.52 g/m*3 19.1 C 6.4 km/h
1361 31-05-2014 16:40:00 19.3 C 9.12 g/m*3 19.3 C 4.8 km/h
1362 31-05-2014 16:45:00 18.8 C 10.47 g/m*3 18.8 C 0 km/h
1363 31-05-2014 16:50:00 18.4 C 9.75 g/m*3 18.4 C 1.6 km/h
1364 31-05-2014 16:55:00 18.2 C 10.57 g/m*3 18.2 C 0 km/h
1365 31-05-2014 17:00:00 18 C 10.75 g/m*3 18 C 0 km/h
1366 31-05-2014 17:05:00 17.9 C 10.38 g/m*3 17.9 C 0 km/h
1367 31-05-2014 17:10:00 18.4 C 10.54 g/m*3 18.4 C 3.2 km/h
1368 31-05-2014 17:15:00 19.9 C 9.11 g/m*3 19.9 C 11.3 km/h
1369 31-05-2014 17:20:00 20.9 C 9.11 g/m*3 20.9 C 8.1 km/h
1370 31-05-2014 17:25:00 21.2 C 8.71 g/m*3 21.2 C 8.1 km/h
1371 31-05-2014 17:30:00 20.9 C 8.38 g/m*3 20.9 C 4.8 km/h
1372 31-05-2014 17:35:00 20.8 C 8.33 g/m*3 20.8 C 9.7 km/h
1373 31-05-2014 17:40:00 20.8 C 8.51 g/m*3 20.8 C 9.7 km/h
1374 31-05-2014 17:45:00 20.8 C 8.69 g/m*3 20.8 C 4.8 km/h
1375 31-05-2014 17:50:00 20.7 C 8.64 g/m*3 20.7 C 4.8 km/h
Sensor: Nr:Datum:Temp:Abs-Feuchte:Windchill:Wind:
Aussen-T/F 1376 31-05-2014 17:55:00 20.4 C 8.49 g/m*3 20.4 C 8.1 km/h
1377 31-05-2014 18:00:00 20.3 C 8.97 g/m*3 20.3 C 4.8 km/h
1378 31-05-2014 18:05:00 20.2 C 8.92 g/m*3 20.2 C 4.8 km/h
1379 31-05-2014 18:10:00 20.2 C 8.39 g/m*3 20.2 C 6.4 km/h
1380 31-05-2014 18:15:00 20.2 C 8.39 g/m*3 20.2 C 6.4 km/h
1381 31-05-2014 18:20:00 20.4 C 8.67 g/m*3 20.4 C 4.8 km/h
1382 31-05-2014 18:25:00 21 C 8.61 g/m*3 21 C 4.8 km/h
1383 31-05-2014 18:30:00 21.6 C 8.16 g/m*3 21.6 C 4.8 km/h
1384 31-05-2014 18:35:00 21.7 C 8.39 g/m*3 21.7 C 4.8 km/h
1385 31-05-2014 18:40:00 21.4 C 10.31 g/m*3 21.4 C 3.2 km/h
1386 31-05-2014 18:45:00 21.4 C 8.44 g/m*3 21.4 C 6.4 km/h
1387 31-05-2014 18:50:00 21.7 C 8.01 g/m*3 21.7 C 6.4 km/h
1388 31-05-2014 18:55:00 21.9 C 8.3 g/m*3 21.9 C 6.4 km/h
1389 31-05-2014 19:00:00 22.1 C 8.59 g/m*3 22.1 C 11.3 km/h
1390 31-05-2014 19:05:00 22 C 8.73 g/m*3 22 C 9.7 km/h
1391 31-05-2014 19:10:00 21.8 C 8.25 g/m*3 21.8 C 9.7 km/h
1392 31-05-2014 19:15:00 21.7 C 8.58 g/m*3 21.7 C 6.4 km/h
1393 31-05-2014 19:20:00 21.5 C 8.3 g/m*3 21.5 C 6.4 km/h
1394 31-05-2014 19:25:00 21.3 C 8.2 g/m*3 21.3 C 6.4 km/h
1395 31-05-2014 19:30:00 21 C 8.24 g/m*3 21 C 4.8 km/h
1396 31-05-2014 19:35:00 20.6 C 7.87 g/m*3 20.6 C 8.1 km/h
1397 31-05-2014 19:40:00 20.4 C 7.96 g/m*3 20.4 C 9.7 km/h
1398 31-05-2014 19:45:00 20.2 C 7.87 g/m*3 20.2 C 4.8 km/h
1399 31-05-2014 19:50:00 20.1 C 7.82 g/m*3 20.1 C 4.8 km/h
1400 31-05-2014 19:55:00 19.9 C 8.08 g/m*3 19.9 C 1.6 km/h
Sensor: Nr:Datum:Temp:Abs-Feuchte:Windchill:Wind:
Aussen-T/F 1401 31-05-2014 20:00:00 19.7 C 9.85 g/m*3 19.7 C 0 km/h
1402 31-05-2014 20:05:00 18.9 C 10.37 g/m*3 18.9 C 0 km/h
1403 31-05-2014 20:10:00 18.2 C 10.41 g/m*3 18.2 C 0 km/h
1404 31-05-2014 20:15:00 17.7 C 10.26 g/m*3 17.7 C 0 km/h
1405 31-05-2014 20:20:00 17.3 C 10.16 g/m*3 17.3 C 0 km/h
1406 31-05-2014 20:25:00 16.9 C 10.07 g/m*3 16.9 C 0 km/h
1407 31-05-2014 20:30:00 16.7 C 10.37 g/m*3 16.7 C 0 km/h
1408 31-05-2014 20:35:00 16.4 C 10.19 g/m*3 16.4 C 1.6 km/h
1409 31-05-2014 20:40:00 16.2 C 10.07 g/m*3 16.2 C 1.6 km/h
1410 31-05-2014 20:45:00 16 C 10.08 g/m*3 16 C 0 km/h
1411 31-05-2014 20:50:00 15.8 C 9.96 g/m*3 15.8 C 0 km/h
1412 31-05-2014 20:55:00 15.6 C 9.97 g/m*3 15.6 C 0 km/h
1413 31-05-2014 21:00:00 15.3 C 9.79 g/m*3 15.3 C 0 km/h
1414 31-05-2014 21:05:00 15.2 C 9.73 g/m*3 15.2 C 0 km/h
1415 31-05-2014 21:10:00 15 C 9.75 g/m*3 15 C 1.6 km/h
1416 31-05-2014 21:15:00 14.8 C 9.63 g/m*3 14.8 C 1.6 km/h
1417 31-05-2014 21:20:00 14.7 C 9.57 g/m*3 14.7 C 1.6 km/h
1418 31-05-2014 21:25:00 14.4 C 9.64 g/m*3 14.4 C 0 km/h
1419 31-05-2014 21:30:00 14.3 C 9.58 g/m*3 14.3 C 1.6 km/h
1420 31-05-2014 21:35:00 14.2 C 9.52 g/m*3 14.2 C 1.6 km/h
1421 31-05-2014 21:40:00 14.1 C 9.59 g/m*3 14.1 C 1.6 km/h
1422 31-05-2014 21:45:00 13.9 C 9.47 g/m*3 13.9 C 0 km/h
1423 31-05-2014 21:50:00 13.8 C 9.41 g/m*3 13.8 C 0 km/h
1424 31-05-2014 21:55:00 13.8 C 9.29 g/m*3 13.8 C 0 km/h
1425 31-05-2014 22:00:00 13.7 C 9.35 g/m*3 13.7 C 0 km/h
Sensor: Nr:Datum:Temp:Abs-Feuchte:Windchill:Wind:
Aussen-T/F 1426 31-05-2014 22:05:00 13.7 C 9.35 g/m*3 13.7 C 0 km/h
1427 31-05-2014 22:10:00 13.6 C 9.18 g/m*3 13.6 C 0 km/h
1428 31-05-2014 22:15:00 13.6 C 9.3 g/m*3 13.6 C 0 km/h
1429 31-05-2014 22:20:00 13.6 C 9.3 g/m*3 13.6 C 0 km/h
1430 31-05-2014 22:25:00 13.5 C 9.36 g/m*3 13.5 C 0 km/h
1431 31-05-2014 22:30:00 13.5 C 9.24 g/m*3 13.5 C 0 km/h
1432 31-05-2014 22:35:00 13.5 C 9.36 g/m*3 13.5 C 0 km/h
1433 31-05-2014 22:40:00 13.4 C 9.42 g/m*3 13.4 C 0 km/h
1434 31-05-2014 22:45:00 13.4 C 9.53 g/m*3 13.4 C 0 km/h
1435 31-05-2014 22:50:00 13.4 C 9.3 g/m*3 13.4 C 0 km/h
1436 31-05-2014 22:55:00 13.4 C 9.18 g/m*3 13.4 C 0 km/h
1437 31-05-2014 23:00:00 13.4 C 9.18 g/m*3 13.4 C 0 km/h
1438 31-05-2014 23:05:00 13.4 C 9.18 g/m*3 13.4 C 0 km/h
1439 31-05-2014 23:10:00 13.3 C 9.13 g/m*3 13.3 C 0 km/h
1440 31-05-2014 23:15:00 13.3 C 9.13 g/m*3 13.3 C 0 km/h
1441 31-05-2014 23:20:00 13.3 C 9.24 g/m*3 13.3 C 0 km/h
1442 31-05-2014 23:25:00 13.3 C 9.24 g/m*3 13.3 C 0 km/h
1443 31-05-2014 23:30:00 13.2 C 9.3 g/m*3 13.2 C 0 km/h
1444 31-05-2014 23:35:00 13.1 C 9.36 g/m*3 13.1 C 0 km/h
1445 31-05-2014 23:40:00 13 C 9.19 g/m*3 13 C 0 km/h
1446 31-05-2014 23:45:00 12.9 C 9.13 g/m*3 12.9 C 0 km/h
1447 31-05-2014 23:50:00 12.8 C 9.07 g/m*3 12.8 C 0 km/h
1448 31-05-2014 23:55:00 12.7 C 9.13 g/m*3 12.7 C 0 km/h
1449 01-06-2014 00:00:00 12.6 C 8.96 g/m*3 12.6 C 0 km/h
1450 01-06-2014 00:05:00 12.4 C 8.96 g/m*3 12.4 C 0 km/h
Sensor: Nr:Datum:Temp:Abs-Feuchte:Windchill:Wind:
Aussen-T/F 1451 01-06-2014 00:10:00 12.4 C 8.96 g/m*3 12.4 C 0 km/h
1452 01-06-2014 00:15:00 12.4 C 8.96 g/m*3 12.4 C 0 km/h
1453 01-06-2014 00:20:00 12.4 C 9.07 g/m*3 12.4 C 0 km/h
1454 01-06-2014 00:25:00 12.3 C 8.9 g/m*3 12.3 C 0 km/h
1455 01-06-2014 00:30:00 12.4 C 9.07 g/m*3 12.4 C 0 km/h
1456 01-06-2014 00:35:00 12.4 C 9.07 g/m*3 12.4 C 0 km/h
1457 01-06-2014 00:40:00 12.4 C 9.07 g/m*3 12.4 C 0 km/h
1458 01-06-2014 00:45:00 12.4 C 9.07 g/m*3 12.4 C 0 km/h
1459 01-06-2014 00:50:00 12.4 C 8.96 g/m*3 12.4 C 0 km/h
1460 01-06-2014 00:55:00 12.3 C 8.9 g/m*3 12.3 C 0 km/h
1461 01-06-2014 01:00:00 12.3 C 8.9 g/m*3 12.3 C 3.2 km/h
1462 01-06-2014 01:05:00 12.3 C 8.9 g/m*3 12.3 C 0 km/h
1463 01-06-2014 01:10:00 12.2 C 8.96 g/m*3 12.2 C 0 km/h
1464 01-06-2014 01:15:00 12.2 C 8.96 g/m*3 12.2 C 0 km/h
1465 01-06-2014 01:20:00 12.2 C 8.96 g/m*3 12.2 C 0 km/h
1466 01-06-2014 01:25:00 12.3 C 9.01 g/m*3 12.3 C 0 km/h
1467 01-06-2014 01:30:00 12.3 C 9.01 g/m*3 12.3 C 0 km/h
1468 01-06-2014 01:35:00 12.3 C 9.01 g/m*3 12.3 C 0 km/h
1469 01-06-2014 01:40:00 12.2 C 8.96 g/m*3 12.2 C 0 km/h
1470 01-06-2014 01:45:00 12.1 C 9.01 g/m*3 12.1 C 0 km/h
1471 01-06-2014 01:50:00 12.1 C 9.01 g/m*3 12.1 C 0 km/h
1472 01-06-2014 01:55:00 12 C 8.85 g/m*3 12 C 0 km/h
1473 01-06-2014 02:00:00 11.9 C 8.9 g/m*3 11.9 C 1.6 km/h
1474 01-06-2014 02:05:00 11.8 C 8.84 g/m*3 11.8 C 0 km/h
1475 01-06-2014 02:10:00 11.8 C 8.84 g/m*3 11.8 C 0 km/h
Sensor: Nr:Datum:Temp:Abs-Feuchte:Windchill:Wind:
Aussen-T/F 1476 01-06-2014 02:15:00 11.7 C 8.79 g/m*3 11.7 C 0 km/h
1477 01-06-2014 02:20:00 11.6 C 8.83 g/m*3 11.6 C 0 km/h
1478 01-06-2014 02:25:00 11.5 C 8.78 g/m*3 11.5 C 0 km/h
1479 01-06-2014 02:30:00 11.4 C 8.72 g/m*3 11.4 C 0 km/h
1480 01-06-2014 02:35:00 11.3 C 8.67 g/m*3 11.3 C 0 km/h
1481 01-06-2014 02:40:00 11.3 C 8.67 g/m*3 11.3 C 0 km/h
1482 01-06-2014 02:45:00 11.2 C 8.62 g/m*3 11.2 C 0 km/h
1483 01-06-2014 02:50:00 11.1 C 8.56 g/m*3 11.1 C 0 km/h
1484 01-06-2014 02:55:00 11 C 8.51 g/m*3 11 C 0 km/h
1485 01-06-2014 03:00:00 10.9 C 8.45 g/m*3 10.9 C 0 km/h
1486 01-06-2014 03:05:00 10.8 C 8.5 g/m*3 10.8 C 0 km/h
1487 01-06-2014 03:10:00 10.6 C 8.49 g/m*3 10.6 C 0 km/h
1488 01-06-2014 03:15:00 10.5 C 8.34 g/m*3 10.5 C 0 km/h
1489 01-06-2014 03:20:00 10.4 C 8.38 g/m*3 10.4 C 0 km/h
1490 01-06-2014 03:25:00 10.3 C 8.33 g/m*3 10.3 C 0 km/h
1491 01-06-2014 03:30:00 10.3 C 8.43 g/m*3 10.3 C 0 km/h
1492 01-06-2014 03:35:00 10.3 C 8.43 g/m*3 10.3 C 0 km/h
1493 01-06-2014 03:40:00 10.3 C 8.43 g/m*3 10.3 C 1.6 km/h
1494 01-06-2014 03:45:00 10.4 C 8.48 g/m*3 10.4 C 1.6 km/h
1495 01-06-2014 03:50:00 10.4 C 8.48 g/m*3 10.4 C 0 km/h
1496 01-06-2014 03:55:00 10.4 C 8.48 g/m*3 10.4 C 0 km/h
1497 01-06-2014 04:00:00 10.4 C 8.48 g/m*3 10.4 C 0 km/h
1498 01-06-2014 04:05:00 10.3 C 8.43 g/m*3 10.3 C 0 km/h
1499 01-06-2014 04:10:00 10.3 C 8.52 g/m*3 10.3 C 0 km/h
1500 01-06-2014 04:15:00 10.2 C 8.47 g/m*3 10.2 C 0 km/h
Sensor: Nr:Datum:Temp:Abs-Feuchte:Windchill:Wind:
Aussen-T/F 1501 01-06-2014 04:20:00 10.2 C 8.47 g/m*3 10.2 C 0 km/h
1502 01-06-2014 04:25:00 10.2 C 8.47 g/m*3 10.2 C 0 km/h
1503 01-06-2014 04:30:00 10.2 C 8.47 g/m*3 10.2 C 0 km/h
1504 01-06-2014 04:35:00 10.2 C 8.56 g/m*3 10.2 C 0 km/h
1505 01-06-2014 04:40:00 10.2 C 8.56 g/m*3 10.2 C 0 km/h
1506 01-06-2014 04:45:00 10.2 C 8.56 g/m*3 10.2 C 0 km/h
1507 01-06-2014 04:50:00 10.2 C 8.56 g/m*3 10.2 C 0 km/h
1508 01-06-2014 04:55:00 10.3 C 8.62 g/m*3 10.3 C 0 km/h
1509 01-06-2014 05:00:00 10.3 C 8.62 g/m*3 10.3 C 0 km/h
1510 01-06-2014 05:05:00 10.3 C 8.62 g/m*3 10.3 C 0 km/h
1511 01-06-2014 05:10:00 10.3 C 8.62 g/m*3 10.3 C 0 km/h
1512 01-06-2014 05:15:00 10.2 C 8.56 g/m*3 10.2 C 0 km/h
1513 01-06-2014 05:20:00 10.2 C 8.56 g/m*3 10.2 C 0 km/h
1514 01-06-2014 05:25:00 10.3 C 8.71 g/m*3 10.3 C 0 km/h
1515 01-06-2014 05:30:00 10.3 C 8.71 g/m*3 10.3 C 0 km/h
1516 01-06-2014 05:35:00 10.3 C 8.71 g/m*3 10.3 C 0 km/h
1517 01-06-2014 05:40:00 10.6 C 8.78 g/m*3 10.6 C 1.6 km/h
1518 01-06-2014 05:45:00 10.7 C 8.84 g/m*3 10.7 C 1.6 km/h
1519 01-06-2014 05:50:00 10.8 C 8.8 g/m*3 10.8 C 0 km/h
1520 01-06-2014 05:55:00 10.9 C 8.85 g/m*3 10.9 C 0 km/h
1521 01-06-2014 06:00:00 11.1 C 8.96 g/m*3 11.1 C 1.6 km/h
1522 01-06-2014 06:05:00 11.2 C 8.92 g/m*3 11.2 C 1.6 km/h
1523 01-06-2014 06:10:00 11.2 C 8.92 g/m*3 11.2 C 0 km/h
1524 01-06-2014 06:15:00 11.3 C 8.98 g/m*3 11.3 C 1.6 km/h
1525 01-06-2014 06:20:00 11.4 C 8.83 g/m*3 11.4 C 6.4 km/h
Sensor: Nr:Datum:Temp:Abs-Feuchte:Windchill:Wind:
Aussen-T/F 1526 01-06-2014 06:25:00 11.4 C 8.83 g/m*3 11.4 C 0 km/h
1527 01-06-2014 06:30:00 11.6 C 8.94 g/m*3 11.6 C 3.2 km/h
1528 01-06-2014 06:35:00 11.6 C 8.73 g/m*3 11.6 C 0 km/h
1529 01-06-2014 06:40:00 11.7 C 8.79 g/m*3 11.7 C 3.2 km/h
1530 01-06-2014 06:45:00 11.8 C 8.84 g/m*3 11.8 C 1.6 km/h
1531 01-06-2014 06:50:00 11.8 C 8.74 g/m*3 11.8 C 0 km/h
1532 01-06-2014 06:55:00 11.8 C 8.84 g/m*3 11.8 C 3.2 km/h
1533 01-06-2014 07:00:00 11.8 C 8.84 g/m*3 11.8 C 4.8 km/h
1534 01-06-2014 07:05:00 11.8 C 8.74 g/m*3 11.8 C 1.6 km/h
1535 01-06-2014 07:10:00 11.9 C 8.9 g/m*3 11.9 C 0 km/h
1536 01-06-2014 07:15:00 11.9 C 8.9 g/m*3 11.9 C 0 km/h
1537 01-06-2014 07:20:00 12 C 8.85 g/m*3 12 C 0 km/h
1538 01-06-2014 07:25:00 12.1 C 8.9 g/m*3 12.1 C 0 km/h
1539 01-06-2014 07:30:00 12.2 C 9.06 g/m*3 12.2 C 0 km/h
1540 01-06-2014 07:35:00 12.3 C 9.12 g/m*3 12.3 C 6.4 km/h
1541 01-06-2014 07:40:00 12.3 C 9.01 g/m*3 12.3 C 1.6 km/h
1542 01-06-2014 07:45:00 12.4 C 8.96 g/m*3 12.4 C 1.6 km/h
1543 01-06-2014 07:50:00 12.4 C 8.96 g/m*3 12.4 C 0 km/h
1544 01-06-2014 07:55:00 12.4 C 8.96 g/m*3 12.4 C 1.6 km/h
1545 01-06-2014 08:00:00 12.4 C 8.85 g/m*3 12.4 C 1.6 km/h
1546 01-06-2014 08:05:00 12.6 C 9.07 g/m*3 12.6 C 0 km/h
1547 01-06-2014 08:10:00 12.8 C 9.18 g/m*3 12.8 C 3.2 km/h
1548 01-06-2014 08:15:00 12.9 C 9.13 g/m*3 12.9 C 3.2 km/h
1549 01-06-2014 08:20:00 12.9 C 9.02 g/m*3 12.9 C 3.2 km/h
1550 01-06-2014 08:25:00 13 C 9.3 g/m*3 13 C 0 km/h
Sensor: Nr:Datum:Temp:Abs-Feuchte:Windchill:Wind:
Aussen-T/F 1551 01-06-2014 08:30:00 13.1 C 9.24 g/m*3 13.1 C 3.2 km/h
1552 01-06-2014 08:35:00 13.2 C 9.19 g/m*3 13.2 C 0 km/h
1553 01-06-2014 08:40:00 13.2 C 9.19 g/m*3 13.2 C 0 km/h
1554 01-06-2014 08:45:00 13.2 C 9.19 g/m*3 13.2 C 1.6 km/h
1555 01-06-2014 08:50:00 13.3 C 9.36 g/m*3 13.3 C 0 km/h
1556 01-06-2014 08:55:00 13.5 C 9.47 g/m*3 13.5 C 1.6 km/h
1557 01-06-2014 09:00:00 13.7 C 9.47 g/m*3 13.7 C 3.2 km/h
1558 01-06-2014 09:05:00 13.7 C 9.47 g/m*3 13.7 C 3.2 km/h
1559 01-06-2014 09:10:00 13.7 C 9.47 g/m*3 13.7 C 1.6 km/h
1560 01-06-2014 09:15:00 13.7 C 9.47 g/m*3 13.7 C 3.2 km/h
1561 01-06-2014 09:20:00 13.7 C 9.47 g/m*3 13.7 C 1.6 km/h
1562 01-06-2014 09:25:00 14.1 C 9.59 g/m*3 14.1 C 3.2 km/h
1563 01-06-2014 09:30:00 14.1 C 9.47 g/m*3 14.1 C 3.2 km/h
1564 01-06-2014 09:35:00 14 C 9.29 g/m*3 14 C 3.2 km/h
1565 01-06-2014 09:40:00 14.1 C 9.47 g/m*3 14.1 C 1.6 km/h
1566 01-06-2014 09:45:00 14.2 C 9.65 g/m*3 14.2 C 3.2 km/h
1567 01-06-2014 09:50:00 14.4 C 9.77 g/m*3 14.4 C 1.6 km/h
1568 01-06-2014 09:55:00 14.7 C 9.57 g/m*3 14.7 C 3.2 km/h
1569 01-06-2014 10:00:00 15.1 C 9.8 g/m*3 15.1 C 3.2 km/h
1570 01-06-2014 10:05:00 15.5 C 9.78 g/m*3 15.5 C 3.2 km/h
1571 01-06-2014 10:10:00 15.9 C 9.62 g/m*3 15.9 C 4.8 km/h
1572 01-06-2014 10:15:00 16.1 C 9.6 g/m*3 16.1 C 4.8 km/h
1573 01-06-2014 10:20:00 16.3 C 9.85 g/m*3 16.3 C 1.6 km/h
1574 01-06-2014 10:25:00 16.4 C 9.63 g/m*3 16.4 C 3.2 km/h
1575 01-06-2014 10:30:00 16.5 C 9.55 g/m*3 16.5 C 4.8 km/h
Sensor: Nr:Datum:Temp:Abs-Feuchte:Windchill:Wind:
Aussen-T/F 1576 01-06-2014 10:35:00 16.5 C 9.69 g/m*3 16.5 C 4.8 km/h
1577 01-06-2014 10:40:00 16.7 C 9.52 g/m*3 16.7 C 4.8 km/h
1578 01-06-2014 10:45:00 16.9 C 9.78 g/m*3 16.9 C 8.1 km/h
1579 01-06-2014 10:50:00 17.1 C 9.61 g/m*3 17.1 C 4.8 km/h
1580 01-06-2014 10:55:00 17.3 C 9.87 g/m*3 17.3 C 6.4 km/h
1581 01-06-2014 11:00:00 17.4 C 9.19 g/m*3 17.4 C 9.7 km/h
1582 01-06-2014 11:05:00 17.6 C 9.6 g/m*3 17.6 C 9.7 km/h
1583 01-06-2014 11:10:00 17.8 C 9.71 g/m*3 17.8 C 6.4 km/h
1584 01-06-2014 11:15:00 18.1 C 9.58 g/m*3 18.1 C 4.8 km/h
1585 01-06-2014 11:20:00 18.2 C 9.33 g/m*3 18.2 C 9.7 km/h
1586 01-06-2014 11:25:00 18.3 C 9.07 g/m*3 18.3 C 8.1 km/h
1587 01-06-2014 11:30:00 18.3 C 9.85 g/m*3 18.3 C 8.1 km/h
1588 01-06-2014 11:35:00 18.4 C 9.44 g/m*3 18.4 C 9.7 km/h
1589 01-06-2014 11:40:00 18.4 C 9.91 g/m*3 18.4 C 4.8 km/h
1590 01-06-2014 11:45:00 18.6 C 9.71 g/m*3 18.6 C 4.8 km/h
1591 01-06-2014 11:50:00 18.8 C 9.34 g/m*3 18.8 C 8.1 km/h
1592 01-06-2014 11:55:00 19.1 C 9.84 g/m*3 19.1 C 4.8 km/h
1593 01-06-2014 12:00:00 19.2 C 9.56 g/m*3 19.2 C 9.7 km/h
1594 01-06-2014 12:05:00 19.2 C 9.73 g/m*3 19.2 C 8.1 km/h
1595 01-06-2014 12:10:00 19.4 C 9.84 g/m*3 19.4 C 11.3 km/h
1596 01-06-2014 12:15:00 19.6 C 9.62 g/m*3 19.6 C 6.4 km/h
1597 01-06-2014 12:20:00 19.7 C 10.19 g/m*3 19.7 C 6.4 km/h
1598 01-06-2014 12:25:00 19.9 C 8.93 g/m*3 19.9 C 9.7 km/h
1599 01-06-2014 12:30:00 19.7 C 9.51 g/m*3 19.7 C 8.1 km/h
1600 01-06-2014 12:35:00 20 C 9.51 g/m*3 20 C 4.8 km/h
Sensor: Nr:Datum:Temp:Abs-Feuchte:Windchill:Wind:
Aussen-T/F 1601 01-06-2014 12:40:00 20.3 C 9.5 g/m*3 20.3 C 11.3 km/h
1602 01-06-2014 12:45:00 20.3 C 9.15 g/m*3 20.3 C 8.1 km/h
1603 01-06-2014 12:50:00 20.4 C 9.73 g/m*3 20.4 C 11.3 km/h
1604 01-06-2014 12:55:00 20.7 C 9.18 g/m*3 20.7 C 4.8 km/h
1605 01-06-2014 13:00:00 20.6 C 9.13 g/m*3 20.6 C 11.3 km/h
1606 01-06-2014 13:05:00 20.4 C 9.2 g/m*3 20.4 C 9.7 km/h
1607 01-06-2014 13:10:00 20.5 C 9.43 g/m*3 20.5 C 6.4 km/h
1608 01-06-2014 13:15:00 20.6 C 9.13 g/m*3 20.6 C 8.1 km/h
1609 01-06-2014 13:20:00 20.7 C 9.36 g/m*3 20.7 C 8.1 km/h
1610 01-06-2014 13:25:00 20.6 C 9.84 g/m*3 20.6 C 8.1 km/h
1611 01-06-2014 13:30:00 20.8 C 8.87 g/m*3 20.8 C 8.1 km/h
1612 01-06-2014 13:35:00 21.1 C 10.32 g/m*3 21.1 C 8.1 km/h
1613 01-06-2014 13:40:00 21.1 C 9.21 g/m*3 21.1 C 3.2 km/h
1614 01-06-2014 13:45:00 21.1 C 9.03 g/m*3 21.1 C 14.5 km/h
1615 01-06-2014 13:50:00 20.9 C 9.29 g/m*3 20.9 C 8.1 km/h
1616 01-06-2014 13:55:00 20.7 C 9.36 g/m*3 20.7 C 9.7 km/h
1617 01-06-2014 14:00:00 20.4 C 9.02 g/m*3 20.4 C 11.3 km/h
1618 01-06-2014 14:05:00 20.1 C 8.87 g/m*3 20.1 C 8.1 km/h
1619 01-06-2014 14:10:00 19.8 C 8.71 g/m*3 19.8 C 8.1 km/h
1620 01-06-2014 14:15:00 19.8 C 8.71 g/m*3 19.8 C 11.3 km/h
1621 01-06-2014 14:55:00 21.7 C 8.58 g/m*3 21.7 C 12.9 km/h
1622 01-06-2014 15:00:00 21.7 C 8.58 g/m*3 21.7 C 12.9 km/h
1623 01-06-2014 15:05:00 21.7 C 8.58 g/m*3 21.7 C 14.5 km/h
1624 01-06-2014 15:25:00 22.1 C 8.98 g/m*3 22.1 C 8.1 km/h
1625 01-06-2014 15:30:00 22.2 C 9.23 g/m*3 22.2 C 12.9 km/h
Sensor: Nr:Datum:Temp:Abs-Feuchte:Windchill:Wind:
Aussen-T/F 1626 01-06-2014 15:35:00 22.3 C 9.28 g/m*3 22.3 C 9.7 km/h
1627 01-06-2014 15:40:00 22.4 C 8.94 g/m*3 22.4 C 12.9 km/h
1628 01-06-2014 15:45:00 22.3 C 8.69 g/m*3 22.3 C 11.3 km/h
1629 01-06-2014 15:50:00 21.7 C 8.77 g/m*3 21.7 C 11.3 km/h
1630 01-06-2014 15:55:00 21.2 C 8.71 g/m*3 21.2 C 11.3 km/h
1631 01-06-2014 16:00:00 21 C 8.61 g/m*3 21 C 12.9 km/h
1632 01-06-2014 16:05:00 21 C 8.98 g/m*3 21 C 9.7 km/h
1633 01-06-2014 16:10:00 21 C 8.98 g/m*3 21 C 12.9 km/h
1634 01-06-2014 16:30:00 20.9 C 8.74 g/m*3 20.9 C 12.9 km/h
1635 01-06-2014 16:35:00 20.9 C 9.11 g/m*3 20.9 C 8.1 km/h
1636 01-06-2014 16:40:00 21.1 C 8.84 g/m*3 21.1 C 11.3 km/h
1637 01-06-2014 16:45:00 21.1 C 8.66 g/m*3 21.1 C 8.1 km/h
1638 01-06-2014 16:50:00 20.9 C 8.92 g/m*3 20.9 C 11.3 km/h
1639 01-06-2014 16:55:00 20.8 C 8.33 g/m*3 20.8 C 9.7 km/h
1640 01-06-2014 17:00:00 20.4 C 8.49 g/m*3 20.4 C 11.3 km/h
1641 01-06-2014 17:05:00 20.2 C 8.22 g/m*3 20.2 C 9.7 km/h
1642 01-06-2014 17:10:00 20 C 8.47 g/m*3 20 C 11.3 km/h
1643 01-06-2014 17:15:00 19.9 C 8.76 g/m*3 19.9 C 8.1 km/h
1644 01-06-2014 17:20:00 19.9 C 8.59 g/m*3 19.9 C 8.1 km/h
1645 01-06-2014 17:25:00 20 C 8.64 g/m*3 20 C 8.1 km/h
1646 01-06-2014 17:30:00 20.4 C 8.85 g/m*3 20.4 C 6.4 km/h
1647 01-06-2014 17:35:00 20.5 C 8.72 g/m*3 20.5 C 11.3 km/h
1648 01-06-2014 17:40:00 20.6 C 8.41 g/m*3 20.6 C 11.3 km/h
1649 01-06-2014 17:45:00 20.6 C 8.59 g/m*3 20.6 C 9.7 km/h
1650 01-06-2014 17:50:00 20.3 C 8.27 g/m*3 20.3 C 14.5 km/h
Sensor: Nr:Datum:Temp:Abs-Feuchte:Windchill:Wind:
Aussen-T/F 1651 01-06-2014 17:55:00 20.1 C 8 g/m*3 20.1 C 12.9 km/h
1652 01-06-2014 18:00:00 19.9 C 8.25 g/m*3 19.9 C 6.4 km/h
1653 01-06-2014 18:05:00 19.6 C 8.1 g/m*3 19.6 C 11.3 km/h
1654 01-06-2014 18:10:00 19.6 C 8.44 g/m*3 19.6 C 6.4 km/h
1655 01-06-2014 18:15:00 19.4 C 8.18 g/m*3 19.4 C 8.1 km/h
1656 01-06-2014 18:20:00 19.3 C 8.13 g/m*3 19.3 C 9.7 km/h
1657 01-06-2014 18:25:00 19.4 C 8.51 g/m*3 19.4 C 8.1 km/h
1658 01-06-2014 18:30:00 19.4 C 8.01 g/m*3 19.4 C 8.1 km/h
1659 01-06-2014 18:35:00 19.4 C 7.84 g/m*3 19.4 C 9.7 km/h
1660 01-06-2014 18:40:00 19.4 C 8.01 g/m*3 19.4 C 8.1 km/h
1661 01-06-2014 18:45:00 19.3 C 8.13 g/m*3 19.3 C 9.7 km/h
1662 01-06-2014 18:50:00 19.2 C 8.08 g/m*3 19.2 C 9.7 km/h
1663 01-06-2014 18:55:00 19.2 C 8.08 g/m*3 19.2 C 6.4 km/h
1664 01-06-2014 19:00:00 19.3 C 8.13 g/m*3 19.3 C 6.4 km/h
1665 01-06-2014 19:05:00 19.4 C 8.01 g/m*3 19.4 C 9.7 km/h
1666 01-06-2014 19:10:00 19.3 C 7.96 g/m*3 19.3 C 6.4 km/h
1667 01-06-2014 19:15:00 19.1 C 7.7 g/m*3 19.1 C 4.8 km/h
1668 01-06-2014 19:20:00 19 C 8.15 g/m*3 19 C 4.8 km/h
1669 01-06-2014 19:25:00 19 C 8.31 g/m*3 19 C 8.1 km/h
1670 01-06-2014 19:30:00 19.1 C 8.2 g/m*3 19.1 C 6.4 km/h
1671 01-06-2014 19:35:00 19.1 C 8.2 g/m*3 19.1 C 8.1 km/h
1672 01-06-2014 19:40:00 19.2 C 8.24 g/m*3 19.2 C 8.1 km/h
1673 01-06-2014 19:45:00 19 C 8.15 g/m*3 19 C 8.1 km/h
1674 01-06-2014 19:50:00 18.9 C 8.1 g/m*3 18.9 C 6.4 km/h
1675 01-06-2014 19:55:00 18.8 C 8.21 g/m*3 18.8 C 4.8 km/h
Sensor: Nr:Datum:Temp:Abs-Feuchte:Windchill:Wind:
Aussen-T/F 1676 01-06-2014 20:00:00 18.7 C 8.01 g/m*3 18.7 C 4.8 km/h
1677 01-06-2014 20:05:00 18.6 C 8.12 g/m*3 18.6 C 6.4 km/h
1678 01-06-2014 20:10:00 18.5 C 8.07 g/m*3 18.5 C 1.6 km/h
1679 01-06-2014 20:15:00 18.3 C 7.97 g/m*3 18.3 C 3.2 km/h
1680 01-06-2014 20:20:00 18.2 C 7.93 g/m*3 18.2 C 4.8 km/h
1681 01-06-2014 20:25:00 18.1 C 8.03 g/m*3 18.1 C 3.2 km/h
1682 01-06-2014 20:30:00 18 C 8.45 g/m*3 18 C 0 km/h
1683 01-06-2014 20:35:00 17.8 C 9.26 g/m*3 17.8 C 0 km/h
1684 01-06-2014 20:40:00 17.4 C 9.34 g/m*3 17.4 C 0 km/h
1685 01-06-2014 20:45:00 17 C 9.12 g/m*3 17 C 0 km/h
1686 01-06-2014 20:50:00 16.7 C 9.24 g/m*3 16.7 C 0 km/h
1687 01-06-2014 20:55:00 16.4 C 8.93 g/m*3 16.4 C 0 km/h
1688 01-06-2014 21:00:00 16.3 C 9.02 g/m*3 16.3 C 0 km/h
1689 01-06-2014 21:05:00 16.2 C 9.38 g/m*3 16.2 C 0 km/h
1690 01-06-2014 21:10:00 16 C 9.4 g/m*3 16 C 0 km/h
1691 01-06-2014 21:15:00 15.9 C 9.62 g/m*3 15.9 C 0 km/h
1692 01-06-2014 21:20:00 15.8 C 9.83 g/m*3 15.8 C 0 km/h
1693 01-06-2014 21:25:00 15.7 C 9.63 g/m*3 15.7 C 0 km/h
1694 01-06-2014 21:30:00 15.6 C 9.58 g/m*3 15.6 C 0 km/h
1695 01-06-2014 21:35:00 15.5 C 9.39 g/m*3 15.5 C 0 km/h
1696 01-06-2014 21:40:00 15.4 C 9.2 g/m*3 15.4 C 0 km/h
1697 01-06-2014 21:45:00 15.3 C 9.4 g/m*3 15.3 C 0 km/h
1698 01-06-2014 21:50:00 15.3 C 9.53 g/m*3 15.3 C 0 km/h
1699 01-06-2014 21:55:00 15.3 C 9.53 g/m*3 15.3 C 1.6 km/h
1700 01-06-2014 22:00:00 15.3 C 9.4 g/m*3 15.3 C 1.6 km/h
Sensor: Nr:Datum:Temp:Abs-Feuchte:Windchill:Wind:
Aussen-T/F 1701 01-06-2014 22:05:00 15.6 C 9.31 g/m*3 15.6 C 1.6 km/h
1702 01-06-2014 22:10:00 15.6 C 9.44 g/m*3 15.6 C 1.6 km/h
1703 01-06-2014 22:15:00 15.4 C 9.33 g/m*3 15.4 C 0 km/h
1704 01-06-2014 22:20:00 15.2 C 9.35 g/m*3 15.2 C 0 km/h
1705 01-06-2014 22:25:00 15.1 C 9.42 g/m*3 15.1 C 0 km/h
1706 01-06-2014 22:30:00 14.9 C 9.3 g/m*3 14.9 C 0 km/h
1707 01-06-2014 22:35:00 14.8 C 9.37 g/m*3 14.8 C 0 km/h
1708 01-06-2014 22:40:00 14.7 C 9.44 g/m*3 14.7 C 0 km/h
1709 01-06-2014 22:45:00 14.6 C 9.26 g/m*3 14.6 C 0 km/h
1710 01-06-2014 22:50:00 14.6 C 9.26 g/m*3 14.6 C 0 km/h
1711 01-06-2014 22:55:00 14.6 C 9.26 g/m*3 14.6 C 0 km/h
1712 01-06-2014 23:00:00 14.5 C 9.2 g/m*3 14.5 C 0 km/h
1713 01-06-2014 23:05:00 14.4 C 9.27 g/m*3 14.4 C 0 km/h
1714 01-06-2014 23:10:00 14.3 C 9.09 g/m*3 14.3 C 0 km/h
1715 01-06-2014 23:15:00 14.2 C 8.91 g/m*3 14.2 C 0 km/h
1716 01-06-2014 23:20:00 14 C 8.68 g/m*3 14 C 0 km/h
1717 01-06-2014 23:25:00 13.9 C 8.75 g/m*3 13.9 C 0 km/h
1718 01-06-2014 23:30:00 13.8 C 8.94 g/m*3 13.8 C 0 km/h
1719 01-06-2014 23:35:00 13.8 C 9.06 g/m*3 13.8 C 1.6 km/h
1720 01-06-2014 23:40:00 13.7 C 9 g/m*3 13.7 C 1.6 km/h
1721 01-06-2014 23:45:00 13.7 C 9.24 g/m*3 13.7 C 1.6 km/h
1722 01-06-2014 23:50:00 13.7 C 9 g/m*3 13.7 C 0 km/h
1723 01-06-2014 23:55:00 13.8 C 9.06 g/m*3 13.8 C 0 km/h

Legende:
   Min
   Max


Maximal/Minimal-Werte vom 26.05.2014 - 01.06.2014

Sensor Min Max Avg
Temp
(Aussen-T/F)
5.3 °C
31-05-2014  05:55:00
22.4 °C
01-06-2014  15:40:00
14.57 °C
Abs-Feuchte
(Aussen-T/F)
6.58 g/m*3
31-05-2014  05:55:00
15.73 g/m*3
27-05-2014  14:10:00
9.81 g/m*3
Windchill
(Aussen-T/F)
5.3 C
31-05-2014  05:55:00
22.4 C
01-06-2014  15:40:00
14.55 C

Die Daten stammen von einer Davis Vantage Pro 2 Wetter-Station und werden unter Linux mit der Software wview2wettercgi und aufbereitet. Alle Angaben erfolgen ohne Gewähr für ihre Vollständigkeit oder Richtigkeit.
Kontakt: Rainer Krienke krienke@uni-koblenz.de . Meine Webseiten an der Uni Koblenz oder privat.
Version: $Revision: 0.78 $